GFSNGP_250_rhum_045.txt.gz
RH
83 79 68 63 63 70 68 78 72 66 62 75 70 73 86 62 32 11 7 4 4 4 4 4 5 6 9 14 26 34 38 20 25 32 51 70 91 97 88 91 100 100 100 100
71 65 56 67 70 72 74 70 70 70 85 62 64 94 78 62 50 14 7 6 4 3 4 5 7 7 7 11 18 27 26 28 31 45 61 80 96 96 100 100 100 100 100 100
64 60 70 72 69 70 70 98 86 85 87 80 84 81 88 72 59 46 24 11 8 6 6 8 10 14 21 29 34 37 35 40 53 64 88 98 100 100 100 100 100 100 100 100
62 73 83 75 73 70 96 94 92 92 100 100 92 91 85 93 83 61 46 39 34 28 25 25 27 33 39 43 52 61 66 69 79 94 100 100 100 100 100 100 100 100 99 99
84 90 76 83 76 79 83 99 87 77 92 88 99 100 82 100 100 96 89 71 62 57 52 48 49 55 65 76 86 88 96 100 100 100 100 100 100 100 100 100 100 100 76 78
86 89 66 94 85 83 100 100 89 85 94 70 82 85 82 68 100 98 100 92 85 92 100 100 100 100 100 100 100 100 100 100 100 100 100 100 100 100 98 86 65 61 85 90
84 77 70 90 79 100 96 82 81 87 80 62 92 84 81 82 90 79 78 100 100 100 100 99 99 100 100 100 100 100 100 100 100 100 99 84 79 70 66 85 78 82 100 98
82 81 90 79 74 68 72 69 81 90 65 52 82 87 79 97 97 92 59 92 99 78 94 74 90 84 100 100 100 93 96 92 93 95 82 71 84 100 100 100 100 100 100 100
87 76 83 70 78 71 74 81 70 64 49 45 69 76 85 87 84 94 100 83 88 100 74 100 100 78 62 100 88 82 86 98 98 85 83 100 100 100 100 100 100 100 92 84
96 94 81 96 81 94 86 83 78 71 68 56 68 65 74 79 81 87 98 100 100 100 100 100 100 100 100 100 100 100 100 100 100 100 100 100 100 97 78 86 89 86 81 75
100 91 92 92 92 85 94 98 96 90 96 80 68 68 81 77 80 85 89 92 98 100 100 100 100 100 100 100 100 100 100 97 94 91 83 85 94 98 96 87 82 78 71 64
99 90 83 86 92 98 92 90 97 98 100 88 69 69 78 89 88 85 89 88 84 90 89 87 84 84 82 84 87 88 86 95 99 100 100 99 94 92 85 83 76 68 64 58
92 89 77 87 98 100 94 84 95 85 93 100 80 81 86 98 98 98 95 89 90 98 100 100 95 99 100 100 100 100 100 100 100 95 90 84 84 77 70 70 67 67 76 87
87 92 78 90 87 100 90 76 91 87 83 88 85 79 81 80 87 96 100 96 95 91 95 100 99 98 97 100 100 100 96 91 87 84 82 78 75 78 81 80 83 87 78 66
88 91 74 80 98 100 80 86 95 83 91 90 87 89 91 92 95 89 87 88 90 94 93 91 98 100 100 98 92 83 75 84 93 91 88 87 87 87 85 78 73 70 65 63
90 88 79 86 97 85 73 87 99 87 97 93 88 94 90 96 97 97 97 98 99 100 100 100 100 99 92 90 89 96 100 100 100 96 87 81 77 75 70 76 73 60 57 53
85 82 81 85 77 64 77 84 98 95 98 90 95 96 96 94 94 98 100 100 100 100 100 100 98 96 98 100 100 100 97 93 85 79 77 74 71 70 73 68 54 54 51 44
83 77 81 83 75 68 75 90 94 98 97 100 100 100 99 98 100 100 100 100 100 100 100 98 98 94 96 98 99 93 83 78 74 73 73 72 69 68 64 56 52 53 48 42
87 92 92 81 78 77 84 90 90 100 98 100 100 100 99 100 100 100 100 100 100 100 100 97 92 86 94 100 100 90 80 70 68 73 72 68 64 61 57 52 56 50 44 39
97 98 97 86 84 80 91 95 90 94 89 90 98 95 93 97 100 100 100 100 100 100 99 88 89 87 95 98 97 86 81 72 72 70 64 61 59 59 55 56 55 48 38 33
99 100 92 85 80 82 93 94 87 93 100 98 93 96 100 100 100 100 98 98 100 100 93 91 93 97 98 97 88 89 82 75 67 63 65 66 62 57 56 60 55 34 39 22
98 98 97 98 97 98 99 100 96 99 100 100 100 99 100 100 100 100 97 98 99 95 92 92 93 94 93 91 93 85 76 70 66 67 72 67 60 55 59 59 43 32 38 19
91 98 99 100 100 100 100 100 100 100 100 98 90 95 97 99 99 95 98 98 92 86 90 99 96 92 96 96 87 75 69 68 70 72 67 62 59 61 60 55 36 35 32 17
98 98 99 100 100 100 100 100 94 90 90 91 94 96 98 96 97 100 100 98 91 90 100 100 100 96 95 86 77 73 72 77 72 64 63 62 64 63 58 45 31 37 24 16
100 98 99 98 96 100 100 99 93 87 83 89 99 100 100 100 100 100 100 100 94 96 98 94 93 94 86 81 80 79 75 71 65 65 66 66 65 64 54 37 30 34 20 15
100 100 100 100 100 100 100 100 100 97 96 97 100 100 100 100 99 97 96 98 99 96 96 98 99 94 88 83 77 74 75 71 69 71 68 66 67 58 44 30 30 28 17 14
100 100 100 100 100 100 100 100 100 100 100 100 100 100 100 100 100 100 100 100 100 100 98 99 98 95 92 89 82 77 78 75 73 68 68 69 63 52 36 27 31 18 14 13

GFSNGP_250_rhum_048.txt.gz
RH
100 98 90 94 91 78 85 82 70 65 63 59 54 50 61 74 71 62 57 35 13 7 4 4 3 4 5 8 10 11 13 17 20 31 40 55 67 53 51 71 87 94 100 100
84 75 75 80 76 68 68 69 72 71 59 61 57 62 58 67 85 66 48 44 20 9 4 4 4 5 6 8 10 13 17 19 28 39 52 62 68 47 44 62 85 99 100 100
85 83 76 64 67 70 73 79 74 78 89 85 67 59 62 92 77 91 72 42 37 20 8 8 9 10 11 10 11 14 20 28 38 49 55 60 53 54 54 74 97 100 100 100
73 68 66 69 66 70 76 99 77 65 65 66 71 71 67 77 92 98 94 64 46 40 31 25 20 21 23 25 34 45 54 58 61 67 76 71 71 87 100 100 100 100 100 100
70 68 68 68 73 80 76 75 73 63 67 68 63 68 79 76 96 70 80 70 58 55 65 68 61 56 59 62 63 66 70 75 80 85 98 99 100 100 100 100 100 100 100 99
66 67 73 76 86 82 72 80 63 66 71 62 62 73 87 86 84 85 81 74 70 70 82 71 80 78 82 83 95 100 100 100 100 100 100 100 100 100 100 100 95 87 82 73
71 70 84 81 100 90 94 72 66 83 72 61 62 72 72 84 66 96 90 100 84 68 77 100 100 100 100 100 100 100 99 100 100 100 100 100 98 94 82 83 76 82 78 65
86 80 93 88 95 98 83 73 73 73 65 50 60 81 76 73 76 75 100 98 94 100 82 77 75 65 71 74 80 73 90 100 98 82 76 77 69 69 68 68 60 55 73 84
96 89 99 92 90 88 83 73 77 68 55 63 73 72 70 65 90 87 80 98 92 97 85 58 78 87 99 83 94 81 81 85 91 93 85 77 79 76 75 83 87 90 98 100
92 93 100 96 98 89 77 87 80 58 78 81 89 85 72 66 73 80 85 100 92 91 100 100 94 100 95 100 89 96 90 82 79 77 80 83 83 82 82 83 93 97 93 90
84 96 96 85 90 80 77 79 67 83 95 100 88 95 84 78 80 72 79 81 89 98 97 92 95 93 93 93 93 96 99 100 100 100 100 100 99 92 84 82 84 82 82 87
83 100 94 95 94 85 79 66 70 92 88 92 97 84 98 92 91 82 80 76 81 80 86 89 93 98 98 97 100 98 92 85 82 86 87 85 86 86 87 89 93 95 95 92
79 85 94 100 86 82 84 70 64 86 94 82 88 84 87 91 98 99 97 90 86 90 86 89 97 100 99 98 96 90 86 88 90 93 95 96 98 100 99 91 89 86 78 68
87 83 91 96 84 86 88 80 74 80 92 85 78 75 81 89 93 92 95 95 96 96 96 89 96 93 90 83 88 99 91 86 92 100 100 100 100 90 79 72 67 64 59 52
92 98 99 96 95 82 83 85 70 84 91 89 87 85 80 86 87 88 91 91 93 94 90 89 88 83 80 95 96 87 88 92 100 99 95 91 81 73 66 64 62 53 47 50
100 100 100 100 100 83 81 84 73 78 91 89 97 96 90 97 94 94 94 91 91 91 96 92 85 87 100 96 90 85 87 96 94 95 88 78 72 68 66 59 54 52 50 58
99 100 100 100 100 90 86 83 70 74 94 89 100 100 96 100 100 99 96 92 93 88 84 93 98 100 100 98 91 86 85 93 96 98 85 82 78 68 61 58 57 53 57 58
98 100 95 100 100 91 95 80 74 75 97 89 98 100 99 99 97 86 88 94 89 92 100 100 100 100 95 90 91 86 97 99 98 98 87 82 76 69 67 63 57 56 56 57
87 84 97 100 96 80 82 85 76 76 84 91 92 100 96 90 91 94 94 98 100 98 100 98 97 94 95 94 85 83 97 100 100 87 83 78 71 71 68 60 58 54 55 59
88 100 97 87 85 87 83 76 73 79 80 86 97 100 100 100 100 100 100 98 96 94 93 93 96 97 96 84 78 91 98 91 83 80 79 74 71 68 62 61 59 58 63 56
99 96 84 78 82 86 74 80 88 85 99 99 98 100 100 100 100 98 96 93 89 93 98 99 100 94 80 76 90 98 93 85 77 73 72 69 68 64 66 62 65 64 57 57
96 94 94 88 81 81 84 98 100 100 100 100 100 100 100 96 95 93 94 98 100 99 99 99 97 95 88 86 95 92 84 75 71 69 65 70 67 67 69 71 66 62 55 49
80 79 78 80 90 94 97 100 100 100 100 100 100 99 99 93 98 100 100 100 100 100 100 98 99 98 95 92 88 82 79 76 73 72 73 72 74 74 78 73 70 62 51 45
97 96 97 97 96 92 90 91 94 99 100 100 98 99 100 100 100 100 100 99 100 99 97 97 100 100 100 95 89 86 83 83 84 79 79 80 79 81 79 70 59 49 42 43
100 100 100 98 98 100 100 100 99 98 98 97 96 95 94 92 95 100 100 100 100 100 100 100 94 86 89 94 95 92 91 90 89 86 83 82 86 79 72 57 50 39 41 33
93 96 97 100 100 100 100 100 100 100 100 100 100 100 100 98 100 100 99 98 100 100 95 93 88 88 93 98 98 95 93 90 90 92 92 87 86 76 57 48 37 33 36 22
83 85 89 94 98 99 100 100 100 100 100 100 100 100 100 100 100 100 100 100 98 99 100 95 87 93 95 96 93 90 87 90 94 96 91 84 71 61 53 41 28 35 25 17

GFSNGP_250_rhum_051.txt.gz
RH
94 88 77 70 81 89 78 88 64 99 95 97 99 88 85 68 52 44 44 50 46 37 27 21 15 6 3 3 3 5 6 8 12 18 26 33 41 56 59 64 55 78 83 73
92 88 93 100 100 94 94 100 97 94 92 91 74 63 54 48 47 51 75 72 47 51 36 20 13 7 5 4 3 5 6 7 10 13 16 25 40 45 56 66 72 72 91 59
94 93 100 100 99 100 93 86 88 87 81 78 74 64 53 46 60 62 97 84 83 60 41 31 20 10 6 7 7 9 12 14 17 20 25 32 37 39 58 72 73 76 64 61
96 99 88 78 82 84 89 89 82 81 82 74 60 56 50 53 64 80 95 86 69 70 62 51 31 23 23 17 15 19 25 28 30 45 42 44 53 68 78 82 83 88 93 99
74 79 83 80 78 79 76 79 91 94 73 70 61 51 57 56 70 99 100 94 78 80 68 62 60 44 32 31 28 37 46 53 79 88 89 92 96 99 100 100 100 100 100 100
84 78 82 80 77 70 71 85 100 92 75 66 53 56 56 71 68 100 100 96 85 95 76 66 56 61 59 52 60 77 84 91 96 100 100 100 100 100 100 99 100 100 100 87
83 84 78 67 66 74 90 95 92 79 67 58 53 55 62 69 73 86 95 86 94 84 100 90 83 74 65 61 63 76 67 79 96 87 89 100 86 83 81 94 84 84 86 76
80 76 69 75 77 87 100 97 86 77 71 61 51 51 63 74 79 87 99 86 91 83 78 100 96 100 98 98 97 90 97 90 94 92 89 83 93 100 100 100 100 100 94 86
81 71 76 84 88 93 100 100 93 84 74 66 60 72 63 73 81 85 98 100 99 85 75 98 90 90 93 99 92 92 94 88 97 100 100 100 95 94 91 75 70 68 61 56
81 80 84 85 92 100 100 98 90 88 73 68 88 97 76 66 81 87 86 100 100 91 79 76 80 88 98 96 93 81 80 87 90 88 84 78 75 73 72 75 80 84 87 89
80 80 89 84 98 100 100 97 87 69 74 79 88 94 84 73 78 96 94 86 87 97 97 90 81 72 78 83 91 97 97 95 91 92 93 92 90 89 88 92 95 98 100 100
86 95 82 82 99 100 100 93 78 73 62 73 81 93 94 75 78 90 92 90 85 91 90 94 94 93 98 99 100 99 90 86 86 86 89 93 95 96 100 100 100 99 100 99
82 75 82 89 97 100 100 96 85 71 59 70 76 81 90 91 86 92 92 94 94 89 88 84 88 93 94 93 79 71 75 82 87 95 96 96 100 100 100 100 99 95 82 73
79 79 82 88 89 100 100 91 83 71 71 71 86 84 84 82 88 88 91 95 94 93 98 100 95 88 77 72 75 81 83 87 85 82 86 92 93 97 97 90 86 83 80 72
82 84 87 93 98 95 97 88 81 77 72 74 86 90 91 90 88 95 99 100 99 97 95 91 83 77 78 77 82 90 99 100 97 87 83 92 97 98 99 95 87 82 75 66
87 96 94 100 100 100 92 93 100 86 77 70 79 90 97 96 98 98 100 100 99 90 85 84 86 85 87 95 99 100 100 100 98 83 89 95 95 99 98 87 81 74 62 55
91 100 100 100 100 99 95 100 100 93 84 77 75 89 100 100 100 99 98 96 94 93 93 94 87 94 100 100 100 96 98 100 87 76 75 79 86 89 79 78 69 57 52 53
92 100 100 100 100 100 100 100 100 98 91 73 70 87 99 98 100 97 95 95 94 89 90 91 96 98 98 93 90 97 95 87 76 73 79 86 81 75 66 58 54 55 59 73
100 100 100 100 98 99 100 100 100 100 92 66 69 73 91 99 100 100 100 100 96 96 93 90 92 91 90 91 98 92 88 79 69 66 76 76 68 63 62 62 65 72 77 79
100 99 100 100 100 99 100 99 100 99 94 64 65 80 97 100 100 100 100 100 99 91 88 94 93 96 99 100 99 89 84 82 81 79 76 73 70 70 70 74 80 84 80 79
94 99 99 99 99 96 100 99 98 100 91 70 70 81 98 100 100 100 100 100 94 96 97 96 95 98 100 100 94 92 94 90 85 82 77 76 75 80 86 88 90 83 80 79
62 66 71 78 84 100 98 89 89 90 85 74 79 90 94 98 98 98 96 97 97 99 100 99 99 100 100 99 98 94 88 86 83 79 78 83 87 91 85 85 89 82 73 63
86 80 94 94 92 95 93 82 80 82 84 83 86 97 100 99 96 92 92 90 97 99 97 100 100 100 97 95 98 98 94 88 80 78 83 83 84 84 82 86 83 81 71 54
99 98 92 93 95 96 93 96 90 84 86 90 92 90 88 87 92 93 93 98 100 100 100 100 99 98 94 98 98 95 93 87 83 83 83 88 88 88 87 86 82 67 50 40
97 93 94 96 96 93 86 87 95 100 99 97 98 98 96 96 99 100 100 100 100 100 98 98 98 97 89 85 86 83 86 84 85 78 85 89 90 83 87 81 63 54 43 32
95 97 98 98 97 96 96 99 100 99 97 96 96 97 99 100 99 99 96 93 91 92 94 97 95 94 88 85 90 91 95 93 83 87 94 94 93 96 78 63 54 44 34 32
77 78 81 84 87 91 94 96 95 94 96 96 94 93 92 94 95 94 91 90 97 95 97 98 98 97 89 93 99 100 99 91 97 97 93 95 95 80 69 56 47 34 26 32

GFSNGP_250_rhum_054.txt.gz
RH
98 98 96 99 100 100 100 100 88 93 88 86 91 95 93 91 79 77 73 67 57 46 37 41 45 29 21 16 12 7 4 4 3 4 6 10 16 26 38 45 56 62 69 75
95 96 100 100 100 99 94 93 76 96 93 82 95 98 99 91 79 73 49 46 47 48 63 69 52 35 25 21 15 7 4 4 5 6 8 9 10 17 35 56 68 76 82 89
89 97 100 98 94 86 86 87 93 100 98 100 100 98 92 78 61 50 46 60 59 61 84 76 60 54 41 32 23 13 9 9 10 10 11 14 16 21 30 45 63 80 90 99
78 86 88 92 86 87 100 100 100 100 100 100 95 87 76 62 51 51 56 64 62 78 85 63 67 67 55 43 38 33 20 14 17 23 25 26 29 32 47 75 94 98 100 100
97 100 100 98 93 98 100 96 94 99 100 95 87 75 60 60 56 55 59 70 67 81 80 75 74 90 82 61 51 45 40 39 40 49 56 72 87 91 82 88 100 100 98 100
100 100 100 94 91 85 87 95 99 97 90 87 76 68 62 54 52 55 67 70 76 72 83 78 78 79 100 72 80 75 60 57 54 56 73 87 88 95 94 100 100 100 100 100
73 75 76 80 84 87 85 92 89 96 90 95 86 75 56 47 53 59 72 69 71 76 85 87 76 73 93 96 78 63 65 74 84 84 74 69 68 64 72 74 74 76 65 64
80 81 85 86 80 73 76 82 93 98 100 96 86 67 55 57 60 63 76 68 75 84 94 87 82 82 88 92 88 88 90 91 90 82 91 95 95 100 100 100 100 99 98 100
76 80 81 77 69 68 76 91 96 88 100 86 85 70 62 79 65 68 69 75 76 81 96 84 82 87 92 86 82 89 94 92 99 100 96 88 83 86 87 90 90 92 94 93
82 85 86 79 75 85 93 97 100 99 97 98 89 75 79 87 77 68 69 79 87 90 92 92 89 81 73 69 76 78 80 86 89 90 93 94 98 99 96 93 93 95 96 97
94 98 93 82 77 93 99 92 98 99 96 100 97 80 68 93 73 73 79 84 97 100 100 93 90 94 92 92 91 88 92 90 88 88 88 94 98 100 100 100 100 100 100 98
97 94 98 88 81 84 100 100 100 97 93 89 78 80 71 86 84 69 80 90 99 100 100 100 93 94 97 95 94 99 86 86 88 92 91 88 90 90 96 97 98 98 98 89
94 92 93 94 87 86 99 100 100 100 97 87 81 78 74 89 81 83 76 83 87 97 100 100 100 100 98 97 96 86 84 82 86 90 86 80 76 72 77 85 91 92 96 100
89 94 98 100 86 79 90 91 99 100 92 86 70 82 85 94 93 87 84 92 100 99 100 100 100 99 93 90 84 86 80 82 78 79 81 84 84 77 72 78 83 86 86 85
93 94 99 100 92 84 82 84 94 99 96 92 77 74 80 88 97 97 95 93 94 96 99 96 93 91 86 84 86 82 84 83 85 86 87 89 82 70 70 78 82 80 73 71
96 92 95 94 92 92 93 87 84 88 97 99 90 77 77 82 100 98 99 100 100 100 100 100 99 93 97 95 88 86 87 92 92 88 89 90 77 68 72 77 77 77 75 74
93 92 88 97 92 83 92 99 99 97 100 100 100 93 76 79 96 100 100 100 100 100 100 100 100 100 95 86 90 92 97 95 90 89 95 84 79 83 87 81 74 79 77 73
92 98 98 91 86 88 90 94 97 94 99 97 97 93 81 78 81 100 100 100 100 100 100 100 100 100 96 97 100 100 94 93 95 92 90 84 87 86 82 74 77 82 71 72
96 96 98 100 100 94 89 94 99 98 100 100 100 96 88 80 77 82 99 99 98 100 100 100 100 99 99 100 100 98 95 95 93 95 93 87 81 80 77 78 80 73 69 75
100 100 100 100 100 100 100 100 100 100 100 100 100 100 88 82 80 91 96 91 100 100 100 100 100 95 96 100 100 100 96 95 92 90 84 84 81 78 75 76 68 66 79 76
96 98 100 99 100 100 100 100 100 98 98 100 100 98 88 76 76 87 100 100 97 99 100 100 99 89 100 100 100 100 100 96 90 86 83 79 73 75 73 66 68 80 80 77
49 77 97 99 100 100 100 100 100 100 100 100 98 96 83 71 69 78 90 94 96 100 100 100 95 99 100 100 100 100 99 98 95 91 82 73 72 69 67 72 85 86 80 86
52 44 46 55 68 74 85 93 94 92 90 91 89 84 80 77 76 81 88 83 87 98 100 100 99 98 100 100 100 100 99 96 90 78 72 72 70 68 69 85 94 85 93 80
96 95 80 62 60 64 67 70 73 80 88 96 100 99 88 86 93 95 92 94 91 92 93 99 99 99 100 99 96 90 89 83 78 75 76 74 72 70 77 90 96 92 86 77
84 94 97 99 100 100 100 97 97 99 100 100 97 91 95 93 92 94 96 100 100 100 100 100 100 99 96 96 95 83 80 84 86 84 76 73 77 84 92 99 83 92 84 79
98 93 88 86 90 94 97 96 96 97 98 97 95 90 89 94 94 90 91 89 92 93 93 94 95 97 98 94 86 82 84 86 84 79 80 83 85 99 100 97 93 86 88 69
93 97 98 96 94 91 89 86 85 87 88 89 88 88 90 89 88 87 89 86 86 88 90 95 96 95 95 94 91 87 86 86 88 88 84 93 91 96 98 88 80 92 82 53

GFSNGP_250_rhum_060.txt.gz
RH
46 46 66 85 86 94 88 89 86 87 90 95 85 92 100 99 96 85 71 68 67 67 77 76 75 65 56 54 54 46 42 37 43 40 30 20 14 11 9 8 7 7 7 8
60 52 63 90 97 94 95 96 100 99 100 100 100 100 95 96 82 82 80 81 82 84 74 68 66 62 56 51 46 44 42 49 44 34 27 26 22 18 14 11 10 9 9 10
70 68 71 80 93 91 92 88 81 72 82 92 90 82 77 77 80 84 84 79 73 72 69 83 68 51 46 44 56 60 57 50 48 44 40 43 36 33 30 19 15 14 15 19
78 84 88 86 91 99 94 83 82 85 94 93 99 100 100 91 86 86 82 73 80 87 73 58 52 44 45 53 73 69 58 59 53 55 52 53 54 47 48 45 40 38 42 46
85 96 100 94 91 99 99 94 99 100 100 100 99 98 100 96 81 73 82 87 87 64 57 49 46 47 59 59 73 68 60 68 71 61 74 85 77 61 54 53 49 53 61 66
80 89 98 100 97 100 99 99 95 98 93 91 98 96 92 90 84 90 91 75 69 55 46 41 46 60 64 59 82 68 59 69 70 76 73 66 66 67 67 63 64 66 72 72
81 80 87 94 97 97 96 97 98 100 100 100 100 97 96 100 94 84 82 70 60 45 43 50 58 67 66 81 71 66 70 73 77 82 71 69 71 74 78 85 88 88 84 84
99 100 98 100 100 99 98 99 100 100 100 100 95 99 100 100 92 82 58 62 69 60 58 66 67 63 75 76 66 67 66 69 80 83 78 82 84 83 78 78 83 90 98 100
90 100 97 100 99 99 98 91 93 98 97 95 100 100 100 100 92 63 65 65 76 68 65 69 73 69 73 74 68 68 74 82 85 82 78 76 76 81 81 80 79 80 80 83
97 100 86 93 97 98 95 94 99 99 96 100 100 100 98 95 85 62 63 68 74 72 64 71 70 75 74 77 82 84 84 86 85 79 73 72 78 82 73 76 77 81 77 71
100 92 86 85 82 85 89 92 94 93 99 100 100 100 100 99 88 72 62 71 74 78 62 66 77 81 78 81 86 86 83 83 89 78 70 74 80 81 76 80 79 83 82 76
85 80 80 81 81 82 85 79 69 72 83 94 99 100 100 98 94 81 71 72 80 76 73 67 72 89 90 90 89 82 85 90 94 84 79 83 86 86 86 88 82 83 85 82
90 90 84 79 81 88 85 81 78 86 92 99 100 100 94 97 88 89 81 74 82 79 82 81 75 86 96 94 90 85 95 100 98 98 89 89 92 87 90 90 87 90 90 85
94 89 86 86 85 81 88 93 89 91 95 98 95 96 100 100 92 80 82 77 75 86 85 86 95 100 99 98 92 98 100 98 94 95 95 96 94 91 98 96 92 87 83 78
100 99 98 99 96 90 92 98 100 100 100 96 96 100 100 100 98 84 71 77 76 74 89 85 86 94 100 99 99 100 100 100 100 100 99 96 96 98 99 94 91 87 80 81
96 100 100 100 100 98 98 99 99 100 98 99 99 100 100 100 100 99 97 92 90 78 77 87 91 86 87 91 95 98 99 96 97 100 100 98 93 89 91 89 90 89 86 83
96 100 99 100 100 100 99 100 100 100 100 100 100 100 100 100 100 100 100 100 93 94 90 86 87 92 94 92 88 87 86 87 90 92 92 90 90 88 92 91 89 91 90 84
97 100 100 98 100 100 96 100 100 100 100 100 98 99 100 98 100 100 100 100 97 86 85 95 96 92 85 83 92 93 90 89 90 91 91 92 92 94 97 94 93 94 92 90
97 95 99 99 100 100 100 99 100 100 100 100 100 100 100 100 100 100 100 99 100 99 89 95 96 96 91 90 91 87 88 92 95 96 99 100 99 100 100 100 98 93 94 91
98 94 89 92 100 100 99 100 99 99 100 100 100 100 100 99 100 98 95 98 97 100 100 94 96 98 100 99 92 95 94 92 98 96 94 100 100 100 99 100 100 100 100 95
95 98 97 93 90 100 100 100 100 99 96 98 100 100 100 100 99 99 100 100 98 96 96 93 94 99 98 98 98 92 93 92 92 94 98 100 97 96 95 96 99 100 98 95
51 72 91 95 94 95 100 100 100 100 100 100 97 92 92 91 91 99 95 92 84 89 98 100 100 99 97 100 99 96 97 94 96 100 99 99 97 92 94 100 100 98 94 88
26 29 37 57 84 95 97 95 96 98 99 100 100 100 98 99 98 97 100 100 99 100 100 99 100 96 100 100 100 100 100 100 100 95 92 94 92 90 94 98 99 96 90 85
43 36 32 29 30 35 50 79 94 95 96 96 98 99 100 100 100 100 100 100 100 100 98 89 89 100 98 97 99 99 100 97 97 99 94 90 86 92 100 100 99 90 83 70
95 94 88 82 74 63 46 38 38 43 55 70 84 90 92 93 94 92 89 86 82 77 79 90 96 96 100 99 97 100 100 100 100 99 97 93 88 98 100 94 85 83 72 73
98 100 100 100 100 100 100 100 98 94 88 78 71 66 67 68 69 74 79 84 97 100 100 100 100 98 97 98 100 100 100 100 100 100 98 91 99 96 87 82 84 77 84 93
88 89 88 88 88 90 94 96 99 99 98 96 96 94 93 95 95 94 96 98 96 95 96 99 98 98 95 91 93 94 97 98 100 100 99 92 86 86 84 73 73 78 95 100

GFSNGP_250_rhum_066.txt.gz
RH
42 33 34 35 35 34 31 26 26 22 23 23 23 22 24 23 29 40 50 57 58 55 57 54 56 65 71 76 75 77 70 62 52 65 62 44 37 32 39 41 37 36 37 39
44 39 33 33 33 43 46 40 36 25 26 29 26 27 32 38 42 43 48 52 56 60 50 47 65 71 42 33 47 53 53 51 46 45 41 42 41 46 43 37 40 40 43 40
35 37 45 52 34 35 38 45 45 62 38 39 29 28 32 42 54 64 69 66 59 64 80 71 61 67 74 67 56 57 54 58 55 47 47 54 51 42 38 46 45 46 42 38
33 38 43 36 45 39 39 46 57 58 56 47 51 54 53 55 59 64 66 73 77 81 88 88 86 77 58 60 66 67 64 58 53 59 61 49 43 41 47 49 47 49 45 40
46 50 42 47 53 53 44 43 48 60 72 66 74 82 82 84 81 78 76 79 77 76 76 76 73 67 76 74 70 78 74 68 64 56 46 41 45 49 51 51 50 55 50 47
40 49 63 55 58 52 50 51 58 70 74 80 82 78 80 78 84 91 79 76 76 74 75 71 78 74 78 90 92 78 69 66 52 44 41 43 54 51 50 53 55 56 54 51
43 48 55 60 63 65 70 77 75 83 80 84 84 91 89 80 79 92 95 86 89 88 84 83 90 98 100 94 86 65 52 44 45 49 55 57 62 54 56 53 61 61 59 58
47 52 70 65 69 85 76 72 88 97 94 86 85 89 96 95 93 93 93 94 89 87 96 100 100 100 92 77 58 44 45 51 61 62 60 63 59 56 58 68 71 70 66 66
59 54 61 78 85 78 77 83 100 100 100 99 100 100 100 100 100 100 96 88 93 100 100 99 94 96 79 57 45 45 61 63 63 64 67 66 66 71 79 79 75 78 75 69
66 67 63 70 96 98 87 83 80 89 99 100 96 95 98 88 85 90 93 95 100 100 98 92 83 71 63 55 50 59 64 65 66 72 73 72 77 81 83 81 77 83 85 77
79 80 82 84 82 84 94 96 89 86 88 88 84 82 86 97 96 97 100 100 100 98 91 77 67 62 63 65 68 70 62 61 69 78 82 85 92 94 90 89 89 93 93 94
81 90 84 88 88 87 88 83 83 85 88 86 84 89 90 86 94 100 100 100 100 94 90 75 62 62 66 67 70 72 65 65 70 75 87 99 100 98 98 99 100 97 95 92
81 81 96 87 95 98 95 85 81 83 82 78 79 82 86 96 100 98 100 100 100 98 92 87 78 65 66 68 78 79 85 86 88 91 98 100 100 100 99 100 97 92 94 95
58 80 89 93 86 90 91 86 85 83 85 87 94 96 91 89 92 95 100 99 96 98 98 90 84 85 71 66 68 72 78 80 88 95 98 100 100 100 99 98 97 96 96 94
31 71 81 95 90 89 87 85 86 90 94 90 85 80 73 73 84 92 99 100 100 100 100 95 89 84 85 80 76 71 69 68 67 71 75 77 80 82 86 88 89 91 93 92
25 55 69 85 88 86 92 85 82 81 82 80 76 73 77 74 82 92 97 100 100 100 100 100 100 89 81 74 75 78 75 75 76 76 77 80 83 84 84 82 82 85 85 85
23 51 67 82 80 76 84 76 78 83 84 84 82 80 80 81 84 87 91 94 94 94 97 93 99 97 92 86 81 78 78 80 79 78 81 86 86 83 84 84 86 86 84 83
22 54 72 80 76 72 76 80 80 79 82 83 85 83 84 82 81 81 80 86 93 90 91 88 90 89 90 97 95 92 90 89 92 92 90 90 89 83 83 88 89 86 85 87
22 56 79 86 79 78 84 86 86 88 93 94 88 85 86 84 85 92 100 100 100 100 98 98 94 92 95 99 100 94 94 95 99 99 100 96 94 90 85 86 84 86 89 90
26 61 89 98 92 90 95 94 90 93 98 100 96 93 91 91 93 97 98 95 94 95 94 99 100 100 99 99 100 100 100 100 94 100 100 99 100 94 89 87 80 83 85 86
37 64 96 100 100 100 100 100 100 99 99 99 100 99 97 96 96 98 97 98 96 99 100 100 100 100 100 99 96 96 100 100 100 99 100 100 100 99 91 72 72 82 81 88
44 75 97 100 100 100 100 100 100 100 100 100 100 100 100 100 100 100 100 100 100 100 100 100 100 100 100 100 100 96 98 98 99 100 100 100 99 87 68 71 84 82 80 83
38 56 92 96 99 100 100 100 100 100 100 100 100 100 100 100 100 100 100 100 100 100 100 100 100 100 100 100 100 100 100 100 99 100 98 93 76 70 74 89 87 79 78 76
32 43 65 90 93 96 99 100 100 100 100 100 100 100 100 100 100 100 100 100 100 100 100 100 100 100 100 100 100 100 100 100 98 92 83 76 82 89 91 91 86 82 77 73
28 29 32 42 58 73 83 87 88 88 87 91 94 97 99 99 100 100 100 100 100 100 100 100 100 100 100 100 99 95 91 84 76 79 90 94 93 90 85 83 77 74 69 57
37 38 36 33 30 30 31 32 32 32 33 32 33 33 35 40 47 57 63 66 68 71 74 75 70 63 57 54 57 71 88 99 100 99 98 93 86 83 78 71 58 52 40 35
66 74 74 68 63 64 69 72 75 74 72 71 72 73 77 76 74 71 71 72 73 76 82 89 93 97 98 100 100 100 98 96 92 92 91 80 72 61 48 42 39 37 30 28

GFSNGP_250_rhum_072.txt.gz
RH
27 29 30 34 33 29 27 20 19 18 18 18 17 18 18 17 17 17 17 19 43 74 81 58 60 74 88 94 94 91 94 99 99 98 95 94 93 92 82 85 91 85 63 30
26 28 30 31 36 31 26 25 22 21 20 17 17 18 17 18 19 18 18 19 19 18 20 39 63 75 82 82 88 90 89 97 96 91 77 83 86 87 96 95 59 40 36 34
24 23 26 38 39 33 29 35 26 32 24 23 19 19 18 19 20 20 20 20 21 23 25 30 36 38 42 37 44 53 58 55 71 73 86 95 100 94 71 52 45 38 47 48
40 33 32 26 28 36 32 30 36 34 33 44 25 20 21 20 21 21 21 22 22 21 23 27 32 40 45 68 77 85 80 80 91 95 84 87 76 62 62 57 53 50 51 57
41 43 40 28 27 33 38 35 39 34 35 46 44 33 28 22 21 23 23 23 22 23 24 25 28 30 31 36 46 55 72 77 95 95 96 72 75 66 53 55 52 55 64 65
40 39 42 37 38 36 35 36 41 37 40 44 45 50 35 34 30 27 24 23 24 25 26 26 27 28 27 28 36 47 49 62 76 86 82 60 68 51 52 59 59 68 58 49
40 43 37 36 48 49 41 36 37 40 43 40 41 47 51 36 38 34 33 34 32 32 33 32 31 34 36 41 56 65 73 73 67 76 74 60 61 60 64 68 64 52 52 60
30 44 47 41 39 40 52 54 53 49 45 49 50 57 62 56 59 46 54 51 55 50 48 55 63 73 83 87 89 93 93 88 86 78 70 71 66 66 72 63 53 59 66 69
21 32 49 52 46 42 45 53 60 57 53 54 55 53 60 70 78 72 73 74 89 90 93 88 88 92 95 96 96 95 91 90 82 77 77 70 68 60 52 54 59 71 77 81
26 29 42 61 56 46 47 53 61 68 67 66 67 70 73 90 87 82 87 89 95 98 98 98 92 96 96 96 96 98 93 93 93 82 73 64 51 55 68 67 75 78 84 92
30 28 35 36 64 65 57 70 77 86 84 79 83 86 96 100 98 95 97 98 99 100 100 100 100 100 99 100 100 100 100 100 87 67 56 57 58 63 75 81 81 84 85 83
32 34 30 38 51 80 70 63 74 94 97 94 94 93 93 100 98 98 100 100 100 100 100 100 100 99 96 100 100 100 98 86 68 63 64 66 73 86 91 90 85 87 94 99
32 41 45 42 42 49 88 89 77 72 91 100 98 95 95 97 97 94 93 100 100 99 99 100 100 100 100 100 100 100 92 73 71 70 66 66 69 74 84 94 89 81 77 78
35 40 48 44 49 45 55 88 90 81 78 85 97 95 91 88 93 93 96 96 97 99 96 94 94 100 100 100 100 98 86 82 84 82 83 76 80 77 74 76 78 80 84 90
40 57 65 53 43 46 44 48 84 94 77 72 80 92 95 99 100 99 98 94 92 90 88 86 92 97 100 100 100 99 97 93 94 88 84 79 77 78 82 82 86 85 89 94
42 61 67 62 59 51 41 40 43 83 91 80 83 90 94 91 93 90 88 84 80 80 85 88 92 100 100 100 100 100 100 100 96 92 86 84 79 79 85 89 98 95 88 88
41 42 43 43 51 56 45 25 33 39 84 86 79 82 93 96 94 95 94 89 82 80 88 96 98 100 93 94 96 96 96 94 90 86 86 85 85 88 90 97 98 90 89 99
19 21 22 23 24 27 22 20 28 31 60 84 86 86 88 95 87 86 91 98 97 90 85 83 89 89 92 91 92 94 94 92 94 96 100 99 96 92 87 80 82 95 100 100
15 15 15 16 15 15 16 15 24 27 44 78 91 88 87 93 100 100 97 96 90 80 70 80 80 80 85 89 96 99 100 100 100 100 100 99 96 93 91 91 94 93 95 94
14 14 13 11 10 10 11 13 22 25 46 73 86 87 82 100 100 98 86 80 80 79 79 84 83 85 90 93 94 98 100 100 100 100 100 100 96 96 94 86 85 90 90 89
16 15 13 11 10 11 12 14 22 26 60 72 84 92 92 100 99 92 90 84 87 87 85 88 92 93 94 93 96 100 100 100 100 100 100 100 98 100 100 98 98 94 91 93
17 15 12 12 13 14 18 21 24 46 66 79 95 98 95 100 100 95 90 86 93 96 96 98 100 100 100 100 100 100 100 100 100 100 100 100 99 99 98 97 97 98 100 100
18 16 14 13 16 20 24 26 42 67 77 88 100 100 100 100 100 100 100 100 100 100 100 100 100 100 100 100 100 100 100 99 99 100 100 100 100 100 100 100 100 99 93 84
22 20 20 22 24 27 30 45 75 88 94 98 100 100 100 100 100 100 100 100 100 100 100 100 100 100 100 100 100 100 100 100 100 100 100 100 100 97 92 90 86 80 85 92
26 24 24 25 29 33 43 59 67 87 93 95 96 96 94 95 96 99 100 100 100 100 100 100 100 100 99 100 100 100 100 98 92 88 84 80 75 73 71 75 92 99 99 87
34 34 31 30 30 32 37 42 52 67 81 89 91 93 98 100 100 100 100 100 100 100 100 99 98 98 96 93 84 71 62 56 53 59 71 85 97 98 94 90 86 77 59 45
42 44 50 48 41 39 38 38 40 46 53 60 71 77 83 87 88 87 86 83 76 61 52 52 55 60 67 74 80 84 89 92 93 90 84 77 71 63 55 48 44 37 31 29

GFSNGP_250_rhum_075.txt.gz
RH
18 17 18 16 17 18 20 21 17 22 20 19 19 22 25 26 24 22 20 19 20 24 35 59 58 58 64 78 93 96 96 94 92 92 88 96 99 97 100 96 96 95 86 89
21 23 21 21 24 24 25 22 24 21 22 18 18 19 19 21 23 23 22 21 19 19 17 17 19 33 55 69 58 45 46 59 64 86 68 64 78 84 90 90 88 83 57 54
28 24 23 29 24 24 24 31 28 30 25 25 23 21 19 18 19 22 23 23 22 20 18 17 17 18 18 18 17 19 38 62 81 89 84 74 62 80 89 61 60 80 85 100
38 36 33 30 26 30 28 30 39 38 32 27 25 22 22 22 22 21 22 22 22 20 19 19 19 20 20 20 19 21 22 25 26 29 37 40 47 53 69 89 76 88 100 91
41 40 58 39 34 30 31 28 35 41 35 39 30 23 25 22 21 21 21 21 21 20 19 20 21 28 35 40 40 41 44 56 64 60 68 91 99 95 84 82 100 100 95 86
33 44 48 38 42 46 41 32 34 34 36 41 48 45 21 29 27 24 25 25 24 24 25 24 25 30 32 39 47 58 62 66 53 68 86 86 80 68 100 100 98 71 83 69
18 31 39 41 44 46 49 43 34 37 42 44 42 37 44 38 37 38 32 28 29 30 31 32 32 33 35 40 40 43 49 50 48 45 54 66 60 77 78 77 72 67 59 64
20 22 31 45 45 39 39 46 49 44 42 41 41 54 45 36 38 46 45 44 35 34 34 32 33 33 35 34 34 34 40 45 47 56 67 74 79 77 74 66 61 70 74 72
22 20 25 39 44 43 40 39 37 45 42 42 47 53 58 60 61 43 47 54 52 47 49 44 41 42 46 53 56 53 58 70 92 90 93 89 84 80 84 79 75 72 65 56
22 23 22 28 42 57 49 44 44 46 52 53 58 61 63 69 66 63 63 63 71 60 60 63 72 73 79 80 83 90 95 95 94 97 94 99 99 95 83 70 56 54 55 64
15 21 26 26 30 41 61 53 44 43 58 61 62 62 68 71 66 64 65 83 82 86 85 90 90 93 100 95 97 97 99 100 100 100 100 100 99 82 66 52 60 70 78 84
17 26 26 31 32 32 39 66 68 56 58 74 82 86 83 77 72 78 80 79 87 93 93 95 98 98 99 100 100 100 100 100 100 100 100 100 91 70 66 64 62 65 77 93
18 27 31 36 37 36 40 46 70 77 72 65 72 81 84 86 92 85 89 92 96 95 96 98 100 100 98 98 100 100 98 100 100 100 100 97 84 82 80 81 78 79 84 87
16 20 24 34 45 51 52 49 54 66 90 89 87 87 92 92 92 87 96 98 96 96 97 96 97 99 100 100 100 100 100 100 100 100 100 90 91 92 91 84 83 83 84 90
19 22 24 31 38 45 56 64 60 58 62 92 97 98 96 98 98 97 97 96 100 100 100 100 99 100 100 100 98 100 100 100 100 100 100 98 94 96 96 89 87 89 92 89
22 31 34 36 42 51 56 56 62 64 66 62 73 98 97 96 96 96 99 96 98 100 100 100 100 100 100 99 96 94 100 100 100 98 98 96 100 97 98 99 94 93 92 87
22 31 38 42 43 49 61 63 58 59 65 63 56 58 92 92 95 97 97 98 96 95 95 92 85 92 94 92 87 92 99 100 100 100 100 100 98 97 99 93 91 86 81 88
25 27 30 34 41 50 54 54 59 55 49 47 32 40 67 89 91 98 99 100 99 95 93 89 89 90 87 85 87 92 96 100 99 98 100 98 98 98 98 96 88 82 86 93
22 24 26 28 32 34 36 36 35 32 27 21 22 32 38 76 81 93 100 100 100 97 90 98 88 91 97 95 90 94 95 96 96 95 95 94 98 100 96 84 87 95 92 86
18 18 19 21 25 25 22 18 16 16 15 16 20 26 30 64 77 82 98 97 100 100 99 97 92 94 98 90 84 83 80 80 83 88 93 94 97 94 95 96 95 100 100 94
16 17 18 17 17 17 16 15 13 11 11 12 16 22 31 67 82 87 91 94 100 100 96 98 96 92 90 88 89 90 91 92 96 98 97 98 99 99 100 100 100 100 100 100
16 17 17 18 18 18 15 13 12 12 13 15 22 27 41 77 87 90 91 93 100 100 100 98 98 94 90 91 92 95 95 98 99 99 100 100 99 100 100 100 100 100 100 100
17 18 19 19 20 16 15 15 17 18 20 25 30 33 65 89 93 95 98 100 100 100 100 100 100 100 100 100 100 100 100 100 99 98 99 100 100 100 100 100 100 100 100 100
20 21 21 20 18 17 19 20 24 28 30 34 44 70 88 95 96 97 95 96 100 100 100 100 100 100 100 100 100 100 100 100 100 100 100 100 100 100 100 100 95 90 88 87
24 24 26 24 22 22 22 25 30 38 42 56 76 88 94 95 98 100 100 100 100 100 100 100 100 100 100 100 100 100 100 100 99 98 98 98 92 83 83 73 70 80 95 99
30 30 32 31 28 29 31 33 33 37 50 61 77 89 93 98 98 99 100 100 100 100 100 100 100 100 99 99 98 96 96 95 94 89 80 71 68 82 92 96 94 84 67 51
34 35 35 35 34 35 36 38 41 47 51 57 66 72 82 89 92 95 93 91 91 92 92 92 94 94 94 88 75 62 61 79 87 88 87 78 67 59 53 47 41 37 36 36

GFSNGP_250_rhum_081.txt.gz
RH
14 16 14 14 13 15 20 26 23 60 46 60 62 35 36 38 40 32 32 34 34 35 31 29 30 28 26 27 25 28 32 29 30 36 40 42 42 40 39 45 53 64 73 75
8 16 18 18 15 13 13 15 22 25 29 29 32 34 32 32 33 28 27 27 26 29 28 25 23 24 22 20 19 22 26 26 35 38 35 29 32 39 46 49 55 62 68 70
7 8 15 22 18 17 16 14 14 18 26 19 21 22 24 25 26 26 28 27 26 26 25 24 22 21 19 18 19 19 20 20 20 36 43 31 40 38 44 46 45 45 52 66
7 9 13 16 17 21 20 19 19 17 16 16 18 19 21 25 24 23 24 27 29 31 28 25 20 18 19 20 20 21 22 21 21 22 27 33 43 39 30 31 31 34 57 82
7 9 15 12 12 23 25 19 22 25 22 21 20 20 22 17 18 17 17 17 18 19 22 23 24 23 23 22 22 22 23 24 23 22 23 23 25 24 24 29 33 47 52 48
8 8 12 11 11 17 32 32 31 28 26 26 26 30 22 29 33 38 36 36 25 19 19 21 22 23 25 24 25 25 26 27 28 28 26 27 27 26 26 26 35 46 48 54
8 9 12 9 10 19 29 38 38 39 35 32 32 37 30 36 40 45 43 42 38 37 31 25 24 26 28 29 32 33 32 34 35 35 34 32 32 31 34 38 44 58 72 90
9 9 9 7 18 18 27 31 37 41 42 41 41 39 37 45 47 48 53 51 55 52 46 40 36 33 30 31 33 35 37 39 39 39 40 38 39 58 60 65 70 69 87 100
10 11 10 11 15 17 20 24 30 36 41 43 43 47 56 53 42 49 60 61 67 72 68 73 64 55 44 41 40 38 37 36 38 39 39 42 46 56 83 100 95 100 86 98
10 10 11 13 17 21 23 25 27 34 37 39 38 35 40 43 51 57 50 53 60 68 81 79 78 79 70 71 72 64 60 55 52 53 53 54 59 70 84 88 99 99 91 95
8 8 12 14 21 23 21 22 22 25 32 37 45 43 42 40 40 50 61 60 56 54 62 82 82 82 83 81 80 79 70 69 71 70 72 78 84 87 90 92 97 97 97 100
7 14 16 18 20 18 21 26 26 26 24 28 38 47 45 43 45 51 63 65 62 64 64 70 72 79 81 80 85 90 89 80 75 80 86 90 94 99 100 100 100 100 100 100
9 14 14 14 14 18 28 34 32 31 31 28 31 42 47 46 47 58 81 90 90 90 82 73 73 76 79 82 85 91 93 94 94 95 100 100 100 100 100 100 100 100 100 100
10 14 14 16 16 16 22 32 46 54 54 47 41 39 54 57 56 64 82 88 88 88 87 91 92 91 89 89 91 92 97 100 100 100 100 100 100 100 100 100 100 100 100 100
10 12 15 14 14 14 19 23 34 53 66 66 58 54 44 56 73 80 84 87 86 90 95 97 91 90 97 97 95 98 100 100 100 100 100 100 100 100 100 100 100 100 100 99
13 12 14 15 16 18 18 25 32 48 71 80 86 85 79 69 59 72 83 90 88 87 92 95 93 95 99 100 100 100 100 100 100 100 100 100 98 100 100 100 100 100 100 100
14 13 14 15 16 16 18 20 27 38 52 64 74 81 85 89 89 90 87 83 88 96 94 93 96 100 100 100 97 95 94 100 100 100 100 99 99 100 100 100 100 100 100 96
13 14 14 14 15 16 16 18 21 26 34 47 59 66 68 74 80 84 87 88 86 82 86 96 92 94 98 98 100 98 93 96 99 100 98 100 100 100 99 99 99 98 94 92
14 15 15 16 17 17 19 21 23 27 34 44 52 56 57 57 60 64 68 72 72 70 72 69 86 93 88 92 97 97 93 90 93 99 100 94 92 90 87 87 89 91 92 92
16 17 18 20 20 21 25 28 30 33 39 44 50 58 59 56 56 51 47 42 41 40 44 48 53 74 83 87 92 94 96 94 98 100 100 100 95 90 91 91 92 99 100 100
18 21 24 24 23 24 25 27 29 31 32 30 26 29 33 36 36 32 26 22 19 18 21 26 38 51 78 82 92 94 100 100 100 100 100 100 100 100 99 98 100 100 100 100
16 19 21 22 21 22 22 23 23 23 24 26 28 26 24 22 22 20 16 14 13 14 16 19 24 40 69 81 91 94 96 97 96 99 100 100 100 100 100 100 100 99 99 99
16 18 20 20 20 20 21 21 22 22 24 24 23 23 22 21 18 16 15 15 15 18 20 28 32 59 80 85 91 98 98 99 100 100 100 99 100 100 100 100 100 100 99 95
23 23 22 22 22 22 22 22 24 24 25 25 23 22 19 18 20 19 21 23 25 30 36 39 49 77 95 96 99 100 100 100 100 100 100 100 100 100 100 100 97 94 94 98
20 21 23 23 23 23 23 23 23 24 26 27 24 21 24 25 26 32 38 38 39 40 43 52 68 93 100 100 100 100 100 100 100 100 100 99 100 100 100 100 100 100 100 99
21 22 23 23 24 24 25 25 25 26 28 28 27 28 29 31 37 45 46 49 54 59 65 81 92 100 100 100 100 100 100 100 100 100 100 100 100 100 100 100 100 99 98 93
25 26 28 28 27 27 28 28 30 30 32 33 32 35 39 39 40 47 59 63 65 80 91 98 100 100 100 100 100 100 100 100 100 100 100 100 100 100 100 95 85 74 69 62

GFSNGP_250_rhum_084.txt.gz
RH
10 12 13 14 12 14 22 27 24 39 33 42 29 20 17 17 18 20 25 24 24 25 27 28 29 30 31 29 25 22 21 19 18 19 19 25 29 42 52 60 59 66 77 74
10 9 12 16 14 15 19 24 26 24 30 34 24 22 20 18 17 22 28 27 22 20 21 22 24 25 25 25 25 25 22 22 23 23 26 25 30 32 28 28 28 33 36 45
9 9 10 18 19 15 13 15 20 26 35 17 23 21 20 19 24 31 28 24 24 25 26 25 25 28 28 28 27 26 26 26 28 28 29 31 34 35 39 40 40 37 31 28
7 8 10 12 11 17 18 16 17 24 27 19 23 26 28 25 25 23 23 25 26 28 33 32 30 28 28 28 27 27 24 23 24 23 25 28 26 26 29 38 39 34 33 31
6 7 8 8 8 16 21 18 20 19 17 18 21 25 26 24 24 26 26 32 34 37 35 32 30 31 30 26 22 22 22 22 22 25 25 24 24 25 27 27 28 27 29 33
7 7 8 7 8 11 15 22 24 22 21 22 23 22 19 22 20 19 20 20 20 21 22 24 25 26 26 26 26 24 24 23 23 25 25 27 28 28 30 28 28 28 28 31
7 7 8 7 7 9 13 17 26 28 26 23 23 25 27 30 29 28 31 30 33 32 33 31 29 28 25 22 21 22 22 22 24 25 30 29 35 34 33 32 35 35 33 35
7 8 8 6 8 11 14 16 17 22 27 31 33 31 27 28 30 30 31 32 42 47 49 49 51 46 38 35 33 32 28 27 29 31 34 40 43 42 38 42 44 44 50 46
6 10 8 8 9 14 13 15 15 17 22 27 32 37 43 45 43 38 38 38 41 50 57 62 66 66 67 53 46 41 41 41 41 42 41 43 44 45 47 52 53 51 52 68
6 7 8 8 10 14 15 15 15 16 18 22 32 40 46 52 51 52 56 52 46 46 52 61 68 68 73 75 73 76 74 66 68 62 57 54 52 54 55 55 59 60 78 76
6 7 10 12 13 13 13 17 19 20 20 22 27 31 36 46 52 49 50 58 58 61 53 50 56 64 69 73 76 84 86 89 87 83 77 71 66 62 61 59 64 69 74 78
7 9 11 12 13 14 15 18 18 22 24 25 30 33 42 40 49 46 43 43 49 58 63 60 52 59 66 74 79 84 88 88 90 89 89 84 80 78 77 78 76 76 81 89
8 11 11 12 12 13 14 16 17 20 27 29 29 32 36 41 45 53 49 42 42 50 68 70 64 68 68 73 79 83 88 87 86 85 90 93 90 91 94 93 97 100 100 100
8 12 11 12 14 13 15 19 22 24 26 28 31 33 32 32 38 42 58 54 50 60 73 80 78 78 80 79 82 85 87 89 89 92 94 96 96 99 99 100 100 100 100 100
7 11 15 14 14 12 13 16 19 20 24 31 37 40 41 42 46 45 43 58 58 69 82 81 82 86 91 91 86 88 91 94 93 92 93 97 99 100 100 100 100 100 100 92
8 9 15 19 17 14 14 16 21 28 35 38 40 45 52 55 60 65 70 67 69 88 86 91 88 87 87 90 93 93 94 94 98 96 97 100 100 100 100 99 97 100 99 98
8 10 12 17 19 17 16 18 20 26 29 34 43 53 59 67 72 76 80 83 87 85 88 90 91 97 94 91 94 95 94 94 97 100 98 100 100 100 98 98 100 100 98 95
10 10 13 14 17 18 18 19 22 28 35 41 50 60 72 78 84 87 87 82 82 84 86 85 83 84 84 90 93 93 95 95 94 90 93 97 99 100 100 100 98 98 95 93
11 13 13 16 16 17 19 21 25 28 31 36 38 36 40 47 59 73 81 85 85 84 82 83 84 85 86 84 80 90 94 94 95 96 95 94 92 92 93 92 90 90 91 88
11 14 14 17 18 19 20 22 25 27 28 29 32 34 34 37 40 44 50 57 66 70 71 69 64 59 59 60 69 75 67 80 88 95 98 97 98 98 94 90 90 95 96 94
11 14 17 20 23 24 22 22 23 24 26 27 31 35 36 36 39 41 43 47 46 47 46 43 35 31 28 29 32 35 56 68 88 93 93 94 96 98 98 96 98 100 100 100
9 13 17 22 24 23 22 23 25 28 31 34 38 39 37 35 33 32 34 35 32 29 24 20 17 15 14 14 16 21 31 50 76 86 91 99 100 99 98 98 100 100 100 100
8 12 17 21 24 26 27 28 28 27 27 27 26 27 28 30 29 28 27 26 25 22 21 18 17 16 15 16 18 21 30 40 71 81 92 100 100 100 100 100 100 100 100 100
8 11 16 20 25 28 29 28 27 26 26 26 26 26 25 25 26 26 25 22 22 23 21 26 29 30 28 30 32 35 45 74 83 90 97 100 100 100 98 98 100 97 97 100
8 11 15 20 22 25 25 26 26 26 26 27 27 26 26 28 28 26 26 29 30 30 42 45 45 48 49 49 52 60 77 96 99 100 100 100 99 97 97 97 98 99 100 100
8 11 16 23 26 28 27 27 26 26 28 29 28 28 31 33 34 33 36 43 43 44 58 59 57 60 63 68 74 85 91 100 100 100 100 99 99 100 100 99 100 100 100 98
8 10 14 22 27 28 28 26 26 28 30 30 32 33 34 38 39 40 44 48 53 52 58 68 71 71 73 82 89 94 100 100 100 100 100 99 98 98 99 100 99 99 100 100

GFSNGP_250_rhum_087.txt.gz
RH
6 6 9 9 10 12 18 27 25 25 26 26 22 20 17 18 20 20 24 21 22 24 25 27 30 31 30 29 29 25 24 24 22 22 21 22 22 22 22 22 24 36 45 41
5 6 7 10 8 11 14 22 25 24 26 21 21 21 18 19 19 20 22 25 23 21 23 22 22 23 26 29 30 30 27 25 24 24 24 22 22 22 21 23 28 33 37 37
5 6 6 9 11 13 16 17 18 23 29 19 22 21 22 20 19 20 19 18 19 21 20 23 26 25 24 24 24 26 27 27 28 28 27 26 25 25 26 27 28 27 30 38
5 5 7 14 12 10 14 16 16 22 26 17 21 22 24 20 18 17 18 20 20 21 22 22 21 22 22 24 25 28 29 30 29 29 28 28 28 26 26 27 29 31 35 35
5 6 9 12 8 7 10 12 15 19 19 18 17 18 19 21 23 23 22 23 26 28 29 30 33 33 31 28 26 27 28 28 29 27 26 26 25 26 27 28 29 30 31 33
6 6 7 9 8 9 13 13 18 20 21 21 22 22 18 21 24 25 24 28 34 34 32 33 37 40 39 36 35 33 33 30 27 26 26 26 26 26 26 26 25 27 28 28
5 6 7 7 7 9 11 16 20 23 24 25 24 24 21 20 19 18 19 22 25 27 26 26 27 28 29 27 27 26 26 26 25 24 24 24 23 24 25 26 27 31 33 34
5 6 7 6 7 9 12 13 16 22 26 28 27 27 24 22 22 23 23 23 24 23 23 25 27 27 27 28 31 28 30 28 25 23 22 20 19 20 21 23 29 33 39 39
5 5 6 6 8 10 12 14 15 18 22 27 30 34 34 33 31 28 26 27 30 33 36 38 42 46 50 51 54 54 52 51 49 42 37 34 32 32 31 33 39 45 48 52
6 6 7 7 8 10 13 13 12 13 16 19 24 32 35 41 48 49 52 53 50 40 36 36 42 48 53 57 66 64 69 71 59 64 60 57 62 62 68 58 60 56 58 54
6 6 6 8 9 11 12 12 13 14 16 18 20 24 26 31 39 45 50 53 54 58 63 62 54 52 51 54 57 66 75 77 78 81 79 79 76 74 73 76 73 74 79 82
6 7 6 8 9 10 11 14 14 15 16 18 19 21 24 25 26 28 33 39 47 49 50 53 63 72 69 56 57 61 62 72 78 80 86 86 90 89 86 85 82 77 73 73
5 7 7 6 10 12 12 14 15 17 18 17 20 24 24 25 27 25 30 33 43 51 52 51 54 68 56 81 74 62 64 65 74 82 84 84 85 89 92 87 85 85 83 84
5 6 8 7 8 13 13 13 15 18 21 24 26 29 32 35 37 34 34 38 38 44 53 54 56 68 78 87 90 80 72 70 71 78 83 85 81 83 88 82 88 92 90 89
5 6 8 9 7 13 15 16 16 17 22 28 34 39 43 44 45 45 42 41 40 38 47 64 72 79 86 86 88 90 92 92 92 89 92 93 88 87 91 93 93 95 96 99
5 5 8 10 11 11 17 18 19 20 25 30 33 41 52 57 54 55 60 61 62 60 61 55 74 86 88 94 94 92 95 96 95 94 90 88 88 90 92 94 97 97 100 100
6 6 7 9 11 13 16 18 20 20 22 26 32 35 45 56 61 61 62 66 73 74 74 78 81 76 81 84 82 87 92 91 90 98 100 99 95 93 96 98 97 99 100 100
5 6 7 9 13 15 17 19 19 20 23 27 31 33 37 44 58 63 64 67 72 78 81 82 84 85 85 86 86 86 88 88 93 97 96 98 100 99 98 100 100 99 96 97
5 5 7 9 13 16 18 19 20 23 24 28 33 38 44 52 58 60 58 70 85 87 84 81 83 85 86 86 86 85 86 87 88 90 88 91 97 96 98 98 95 94 96 95
6 5 6 9 12 17 19 21 24 26 27 31 34 39 47 50 52 54 52 48 51 56 58 62 69 74 79 84 84 83 79 78 77 72 75 78 79 86 92 94 96 97 97 94
6 5 6 8 12 18 22 24 25 26 28 28 28 31 33 36 38 37 36 36 39 43 47 48 51 56 59 52 48 44 43 40 39 39 41 46 65 71 81 93 96 97 98 99
6 6 6 8 11 16 22 22 22 22 23 24 24 25 25 26 28 32 36 42 44 46 50 50 45 36 32 29 26 22 19 16 15 16 18 23 32 54 72 86 94 96 100 99
6 6 7 8 10 14 21 25 29 33 33 33 34 35 36 39 42 44 45 45 45 42 36 30 27 26 25 23 21 19 18 17 16 14 16 20 24 45 61 86 93 97 100 100
6 6 7 8 9 11 17 24 27 29 31 32 34 35 35 35 38 38 35 33 32 29 28 29 25 22 22 23 27 31 31 28 28 26 25 28 36 47 70 92 95 99 100 100
6 6 7 7 8 10 15 22 27 31 33 34 36 37 36 35 33 31 28 27 27 30 29 27 28 31 28 35 42 47 52 51 48 50 50 56 71 90 95 95 97 100 100 100
6 7 7 7 8 9 12 17 23 27 31 33 33 32 32 32 31 28 27 27 30 31 30 31 38 40 42 47 58 60 59 62 66 69 75 82 89 97 100 100 100 100 100 98
6 7 7 7 8 10 12 15 22 26 29 30 32 32 32 33 34 32 33 34 35 36 36 37 41 48 47 50 56 67 68 65 67 72 78 81 85 91 92 92 92 93 96 97

GFSNGP_250_rhum_090.txt.gz
RH
5 5 5 6 8 9 9 13 16 23 23 20 19 17 16 16 16 18 20 20 16 16 20 28 32 31 28 28 28 29 29 26 25 25 25 25 25 24 24 22 21 20 20 21
5 5 5 5 6 8 11 10 15 22 26 24 21 20 18 17 18 19 19 21 18 17 16 15 19 23 26 30 34 34 32 31 29 28 27 25 24 24 24 22 21 20 21 21
6 5 5 5 6 8 12 11 13 19 24 18 22 23 22 20 18 20 21 21 18 19 21 21 19 21 24 26 27 28 30 31 30 28 27 27 26 26 26 26 26 25 26 28
5 5 5 6 7 8 10 14 13 16 20 15 19 24 27 24 21 21 21 21 21 21 22 22 23 23 23 25 25 25 25 26 26 27 27 27 28 28 28 27 27 26 26 26
7 5 5 5 6 6 8 13 14 17 18 15 18 24 25 30 32 30 28 26 24 23 24 23 24 24 24 24 23 22 24 25 27 28 30 30 30 30 29 28 27 27 27 28
6 6 6 6 5 6 8 10 12 14 15 15 17 19 21 22 25 28 28 28 28 31 32 35 36 38 37 34 34 34 34 34 33 32 32 31 29 29 29 28 27 27 27 26
8 6 6 6 5 6 8 12 11 12 14 16 19 21 21 21 21 25 28 29 38 38 39 40 42 40 42 43 42 46 42 34 33 30 27 27 27 26 25 24 24 24 25 25
8 6 6 6 6 7 11 13 12 13 13 15 16 18 19 22 22 22 22 22 22 23 23 22 22 25 28 33 35 31 30 27 24 24 22 23 21 20 19 19 18 19 20 22
6 7 5 6 6 7 10 13 14 14 14 14 16 19 20 22 26 26 26 24 22 22 22 23 21 22 24 25 23 22 22 23 26 28 32 33 31 32 29 27 24 23 21 20
6 6 6 6 7 7 10 12 13 15 17 16 19 21 22 26 32 36 36 34 32 30 27 25 26 27 28 32 36 38 41 46 50 56 60 65 58 56 55 52 48 41 43 50
6 6 5 6 6 7 8 10 12 16 17 18 21 23 27 33 41 45 46 47 48 47 45 47 46 44 39 39 44 51 53 52 59 64 69 73 75 76 78 78 76 78 74 74
6 6 5 5 6 7 8 10 12 14 17 18 22 24 27 29 29 29 33 39 43 46 48 49 50 52 55 57 59 58 52 55 56 60 65 72 74 76 81 83 82 80 78 85
7 5 5 5 6 7 9 10 11 13 17 20 24 31 32 31 31 33 34 33 36 37 42 42 45 50 51 54 56 61 58 63 73 71 68 68 75 80 88 90 86 87 92 92
6 5 5 4 6 8 10 10 12 12 16 21 25 27 31 38 37 35 34 34 36 37 35 38 37 42 51 49 46 46 49 75 76 82 90 85 79 75 79 90 94 91 89 88
6 5 5 4 5 7 10 12 12 14 15 19 26 28 34 37 39 40 41 43 43 42 43 43 45 40 38 46 47 50 56 64 69 77 84 87 86 87 86 86 93 94 95 96
7 5 5 5 4 7 8 12 14 14 17 20 24 24 27 32 37 40 42 46 48 47 51 58 57 53 53 48 52 60 65 74 83 85 87 91 96 97 97 96 94 94 96 94
18 7 5 5 4 6 9 11 15 15 17 21 24 27 31 37 45 50 50 51 51 52 59 63 69 70 71 74 76 72 75 80 81 80 86 91 92 94 96 100 100 100 100 99
31 8 6 6 5 6 9 12 14 18 18 21 25 29 33 34 38 52 55 58 62 63 65 67 71 74 77 79 80 83 82 79 80 81 82 83 82 83 86 90 93 98 100 100
36 9 6 6 6 6 8 12 16 17 21 25 32 37 36 37 43 50 50 55 53 51 54 55 58 68 78 80 81 82 84 85 86 88 88 86 85 84 85 86 83 85 91 94
36 11 8 6 7 6 7 11 16 20 23 27 31 31 33 35 39 42 40 42 46 49 51 52 54 59 61 63 67 70 73 70 71 75 78 82 82 79 79 82 87 87 85 86
43 15 8 7 7 7 7 8 14 21 24 26 29 31 31 33 36 38 38 35 38 38 39 40 42 44 48 50 56 61 59 59 60 56 53 47 40 37 36 38 46 62 71 78
64 23 8 8 8 7 7 8 13 19 25 26 27 27 26 24 25 27 30 31 36 40 43 42 42 46 51 50 47 45 41 35 30 30 28 25 22 19 17 16 17 21 32 49
81 30 9 8 8 8 7 8 10 15 22 32 38 38 38 36 37 39 42 40 41 41 43 44 47 48 48 45 38 34 31 28 25 24 24 24 24 21 17 15 15 15 18 32
81 32 8 8 8 8 8 8 9 12 15 26 32 38 42 44 45 45 45 46 46 48 50 50 47 41 37 34 29 30 27 27 28 27 31 33 32 33 29 23 22 22 24 34
66 29 9 8 8 8 8 9 9 10 13 18 25 31 36 41 45 47 50 52 50 48 44 39 36 33 31 32 32 30 31 37 33 35 39 44 46 48 51 51 46 44 48 61
34 16 10 9 7 8 8 9 9 10 12 16 22 27 31 35 38 40 40 40 39 38 35 33 35 37 36 35 33 33 37 41 42 46 49 57 58 60 63 66 75 87 92 94
16 10 8 9 8 7 8 9 9 10 11 14 16 22 30 34 35 36 37 37 35 34 34 37 38 37 37 38 38 38 40 45 46 48 51 54 58 62 62 63 67 74 79 84

GFSNGP_250_rhum_093.txt.gz
RH
6 6 5 4 4 5 12 13 10 12 15 18 17 16 15 14 13 14 14 16 19 20 20 20 20 18 18 24 29 30 30 28 27 26 26 26 25 25 26 26 26 27 27 28
5 6 5 5 5 5 8 10 12 11 13 16 18 19 18 15 14 14 17 18 19 18 18 18 16 16 19 21 23 28 32 32 31 30 31 31 31 29 28 26 26 25 25 27
5 6 5 5 5 5 5 8 14 16 16 12 14 16 18 19 18 16 15 16 17 18 18 18 18 17 18 21 24 25 27 31 33 35 34 32 31 30 29 29 29 28 28 28
5 6 6 5 5 5 6 6 9 16 16 12 12 15 20 21 21 21 20 18 18 18 21 20 21 20 19 19 20 22 25 27 28 29 30 31 30 31 32 32 32 33 33 35
5 5 6 6 5 5 6 6 7 11 15 16 14 15 18 17 24 25 24 24 23 22 22 22 23 23 24 26 25 24 24 26 29 29 29 31 35 37 35 33 33 33 32 31
8 5 6 6 5 6 6 6 7 10 13 16 17 18 17 20 20 24 25 26 28 29 30 30 31 32 31 32 32 30 28 29 30 30 30 30 31 32 32 30 30 28 26 25
10 7 5 5 6 6 6 7 8 10 14 17 16 16 17 19 23 25 27 28 29 29 30 34 38 43 50 50 50 49 50 47 43 38 36 32 31 31 28 27 25 26 28 25
11 10 5 4 5 6 5 6 7 9 12 17 18 17 16 17 19 23 27 31 31 31 34 42 44 35 37 38 39 41 42 43 41 38 38 35 34 32 31 26 25 22 21 20
19 10 6 4 5 5 6 6 6 6 9 13 16 16 16 18 20 22 23 25 25 25 26 26 26 26 23 22 24 27 31 35 38 38 38 36 32 29 26 24 22 21 23 24
27 14 6 4 4 5 5 6 6 6 8 11 12 13 17 18 20 23 24 25 26 26 27 27 26 25 23 23 23 23 23 23 24 24 24 25 27 29 34 41 42 44 45 42
58 18 10 5 4 4 5 6 7 7 8 10 11 13 15 18 20 23 26 27 28 30 33 34 34 34 33 32 30 30 29 29 29 29 30 34 40 49 51 53 57 59 62 64
67 30 10 5 4 4 5 6 6 8 8 10 11 14 17 21 25 26 28 32 34 36 42 45 44 45 46 48 48 49 51 54 56 53 49 47 49 54 57 61 64 70 75 79
65 37 15 6 4 4 4 6 6 8 9 12 13 16 20 23 28 33 35 38 39 41 46 48 47 46 47 50 53 56 58 57 55 58 60 68 78 84 79 74 71 72 76 84
78 50 21 8 5 5 4 5 7 8 11 13 15 16 23 26 30 36 39 40 43 44 46 48 44 40 38 41 41 43 49 51 51 50 60 64 65 65 74 82 84 78 74 73
75 48 24 12 5 4 5 5 7 8 12 16 16 18 20 26 34 37 41 42 40 38 38 38 36 37 36 34 37 37 36 38 46 46 50 58 65 70 76 85 91 88 87 85
71 56 35 11 5 4 4 5 6 9 12 16 18 18 20 23 27 37 42 43 41 42 42 43 46 42 40 40 40 43 45 48 47 51 54 61 75 84 88 90 91 91 91 90
70 60 39 20 7 4 4 5 5 9 11 16 19 19 20 22 29 34 39 42 43 45 45 48 48 49 50 51 55 58 57 60 65 66 70 67 67 72 76 79 82 87 91 91
67 62 49 21 10 5 4 5 6 7 12 14 19 23 25 26 37 41 42 48 50 49 48 51 53 56 61 64 67 68 67 69 73 76 80 81 83 84 85 88 89 90 90 88
74 71 56 21 13 5 5 5 6 7 10 15 16 23 32 42 46 45 40 41 46 46 50 54 58 60 60 60 55 50 50 54 63 65 66 68 73 79 84 85 88 89 91 92
69 75 49 28 13 8 5 5 6 7 8 14 22 22 28 35 40 42 41 39 44 48 52 53 51 52 52 50 49 49 49 52 54 55 56 59 64 66 66 66 70 72 73 77
81 82 45 35 18 10 6 5 6 7 8 12 21 26 24 28 33 36 39 38 43 46 47 48 47 46 44 46 50 53 54 56 55 54 57 59 57 56 57 62 56 46 41 39
82 82 58 45 20 10 7 6 6 8 8 10 16 24 28 28 26 27 31 32 38 42 44 47 46 48 52 51 50 49 47 46 48 47 50 49 47 42 37 32 29 27 25 23
76 86 72 56 19 11 8 7 6 7 8 9 11 15 22 31 36 37 37 34 35 38 43 45 45 44 46 45 45 44 42 45 47 47 42 35 32 31 29 25 27 32 38 36
75 85 84 54 17 9 9 8 7 7 8 9 10 14 20 24 32 38 41 42 43 44 43 44 44 44 44 45 45 48 49 46 41 36 32 30 31 30 32 38 41 43 37 35
84 78 90 48 18 10 9 9 8 7 8 9 9 11 14 22 28 34 41 44 45 46 47 49 51 52 54 55 54 50 45 39 34 32 33 33 31 33 42 42 44 52 53 54
82 86 85 35 17 11 10 9 8 7 8 8 9 11 12 17 22 28 34 38 41 42 45 48 50 51 50 49 47 43 36 33 33 34 35 35 36 38 43 45 47 50 47 50
82 88 52 18 13 11 10 8 8 9 8 8 9 10 11 12 15 18 23 28 32 38 43 47 48 48 45 43 40 36 34 34 35 36 39 38 37 36 38 40 40 38 40 44

GFSNGP_250_rhum_096.txt.gz
RH
8 4 4 6 5 5 5 6 14 24 20 16 18 20 17 16 15 13 13 14 13 14 17 18 18 18 18 20 23 25 27 28 29 30 30 30 28 30 32 32 28 25 25 26
11 4 4 5 5 5 5 6 9 21 26 18 15 17 19 18 16 17 16 17 18 19 19 18 18 19 18 18 18 19 20 21 24 26 25 27 29 34 37 36 34 32 30 30
14 7 4 5 6 5 5 6 6 14 30 18 14 13 15 16 18 18 18 18 18 19 17 17 20 22 23 22 22 21 20 20 22 23 24 23 23 27 35 40 41 38 35 33
9 12 6 4 5 5 5 5 6 8 18 20 20 16 13 15 20 22 21 21 19 19 20 20 21 23 24 24 23 20 19 20 22 23 23 23 26 29 32 34 39 40 40 38
11 13 10 5 4 5 5 5 6 8 8 11 18 19 20 17 17 22 25 27 26 23 21 20 20 21 22 23 23 22 21 20 21 22 25 28 30 31 32 33 34 34 35 34
20 14 13 10 4 4 5 5 6 6 7 9 13 17 18 19 18 21 22 26 30 32 30 29 28 24 22 22 23 24 24 24 25 27 28 28 29 32 33 34 36 36 35 34
41 20 12 12 6 4 4 5 5 6 7 8 9 13 15 18 20 20 22 26 29 32 36 36 36 36 34 33 34 34 37 39 40 41 39 37 35 34 33 32 32 29 28 29
51 32 19 13 10 5 3 4 5 6 7 8 9 10 12 17 20 20 22 26 29 33 39 40 43 44 46 52 56 60 56 48 44 41 38 36 35 35 34 31 29 28 29 31
55 54 25 14 15 9 4 4 4 6 7 8 10 11 11 14 19 21 21 24 29 29 29 36 40 42 45 48 47 45 43 38 35 32 31 33 34 34 33 33 32 32 34 34
67 60 42 20 14 14 5 4 4 5 6 7 9 11 12 13 16 18 20 23 29 31 30 28 31 33 32 33 33 29 27 25 25 26 28 28 27 28 27 26 27 27 25 25
68 69 52 25 17 13 8 4 4 4 5 7 7 10 12 13 16 18 19 22 25 27 28 29 29 29 29 29 29 30 30 29 28 26 25 25 26 27 28 29 30 32 34 36
64 72 63 36 21 15 9 4 4 4 4 6 7 8 11 13 16 17 20 24 26 28 31 31 30 31 32 36 38 38 38 38 39 40 40 43 45 46 48 51 54 56 54 58
62 74 61 41 24 15 10 5 4 4 4 6 8 8 11 15 17 19 21 22 27 31 34 33 33 36 39 41 40 41 44 44 46 45 46 46 51 54 58 68 74 76 77 80
59 69 63 37 21 12 9 4 4 4 5 6 8 8 10 17 21 20 21 24 29 31 33 35 36 38 38 39 39 39 39 39 39 38 38 38 43 48 51 56 58 56 60 71
53 70 74 39 20 10 8 4 4 4 5 5 8 9 11 16 23 26 28 30 33 34 37 37 39 41 44 45 46 45 43 43 41 42 42 40 38 37 46 50 56 62 72 78
51 62 71 62 18 11 10 6 4 5 5 5 7 10 11 17 26 30 33 33 35 41 46 46 50 52 52 50 48 48 47 47 45 44 42 43 44 44 48 59 65 72 82 87
49 60 70 76 42 12 9 8 5 5 6 6 7 10 12 15 20 27 33 36 42 50 54 56 57 54 52 52 55 54 52 50 48 50 58 63 64 64 66 69 70 73 76 82
50 61 77 78 64 30 11 8 7 6 6 6 7 10 14 16 26 34 42 50 54 63 65 58 54 54 54 55 58 61 58 56 57 57 65 71 70 69 69 72 74 75 76 75
52 63 74 81 80 39 16 10 7 7 7 7 7 8 14 18 23 38 53 64 70 69 64 62 65 67 69 65 63 64 60 62 70 74 74 68 64 59 62 69 70 68 67 67
60 64 73 84 76 40 23 11 8 8 8 8 8 8 11 20 25 28 42 56 57 57 60 64 70 73 70 68 66 74 76 72 66 64 64 63 66 70 72 72 69 65 62 63
58 68 79 84 88 59 59 13 9 8 8 8 8 9 9 13 21 22 24 35 46 48 53 56 59 61 62 61 62 67 69 68 68 69 72 72 72 72 63 55 55 51 52 53
63 68 80 92 92 83 77 14 9 8 8 8 8 8 9 10 16 18 23 25 27 32 40 44 47 53 57 63 65 65 66 67 67 70 71 67 62 58 56 52 52 53 52 46
66 69 76 99 90 76 74 20 10 9 8 8 7 7 8 9 10 12 16 27 34 37 40 39 38 43 48 53 56 57 59 61 60 57 55 53 52 50 50 51 50 43 38 34
66 72 75 94 95 68 79 26 10 8 8 8 7 7 7 8 10 11 13 18 25 30 35 38 38 39 40 42 43 44 47 50 49 47 46 48 50 51 51 47 41 34 34 36
64 82 81 95 98 59 77 25 10 8 8 8 8 7 7 8 9 11 12 14 17 22 30 36 42 47 49 49 48 48 48 49 49 51 55 58 57 51 46 40 35 34 34 37
65 78 87 97 96 61 54 17 10 8 8 8 8 7 7 7 8 10 11 13 15 18 21 25 32 39 46 52 56 59 60 61 61 60 58 54 49 44 38 36 36 36 37 37
68 79 88 97 79 67 50 13 8 9 8 8 7 7 7 7 8 10 10 11 13 14 15 18 20 26 34 38 42 44 47 49 49 48 47 44 40 37 34 34 33 35 41 45

GFSNGP_250_rhum_099.txt.gz
RH
16 18 9 4 4 5 5 6 6 12 14 13 12 10 10 12 12 11 12 12 14 16 18 20 23 25 27 29 30 31 33 35 34 32 31 28 25 24 23 22 23 26 27 28
15 15 11 5 4 4 5 5 6 7 8 12 14 14 13 13 15 15 13 12 12 13 14 16 18 19 20 22 22 22 25 25 25 25 24 23 21 20 21 23 26 28 30 31
16 9 10 9 5 4 4 5 6 7 7 7 9 21 22 19 14 15 17 17 17 15 15 15 15 15 15 16 18 20 20 20 20 20 20 20 21 22 24 27 28 29 29 28
23 10 10 12 11 6 4 5 6 6 5 6 6 14 24 26 24 20 19 17 16 15 15 16 16 16 17 17 18 18 18 19 19 19 19 19 20 20 22 23 23 21 20 22
33 18 11 12 10 10 7 4 5 6 6 6 6 8 15 28 34 32 24 22 21 20 19 18 17 17 19 19 19 19 19 19 19 19 19 19 20 23 25 26 26 27 27 26
36 33 17 13 14 12 11 6 4 5 6 7 7 8 9 13 30 39 40 32 30 32 31 28 24 22 22 23 23 22 22 21 21 22 24 24 24 24 27 29 31 32 33 31
51 49 27 21 16 12 10 9 5 4 5 6 8 9 9 11 16 29 33 37 33 30 30 29 28 29 30 29 27 26 26 26 26 25 25 25 27 27 28 30 32 32 29 27
49 54 49 29 14 15 11 10 8 4 4 5 7 9 10 9 12 17 26 29 33 34 34 33 32 29 29 34 38 41 41 40 38 37 39 39 38 37 36 34 33 33 31 30
48 55 57 24 16 16 12 9 8 5 4 4 5 8 10 12 12 13 21 29 33 33 34 38 39 39 40 43 49 51 52 52 54 56 57 56 48 41 38 38 36 34 32 32
51 54 62 41 24 20 10 8 7 5 4 4 5 6 8 10 12 15 17 24 34 40 39 40 45 47 45 45 49 51 50 51 51 52 50 47 44 38 35 33 32 30 29 31
50 58 64 59 42 24 14 10 7 6 3 4 4 6 8 10 11 13 20 26 29 35 37 39 40 38 36 36 36 37 37 35 34 36 36 34 30 29 28 27 28 27 28 28
52 55 67 68 55 37 18 11 7 7 4 4 4 5 6 9 10 12 18 27 32 38 39 35 32 32 32 32 32 32 33 33 32 32 31 31 31 32 32 32 31 33 39 44
51 54 68 74 66 39 24 13 7 6 5 4 4 5 6 8 10 11 17 27 37 43 44 40 37 34 32 32 33 34 35 35 35 34 38 42 46 49 49 49 50 51 52 52
57 50 62 71 71 50 30 12 9 6 5 4 4 5 6 8 10 12 16 26 35 42 44 40 38 37 38 39 38 38 40 41 43 47 51 50 48 47 44 44 43 41 44 45
58 57 54 73 72 58 32 16 10 7 5 4 4 5 6 8 11 13 14 27 36 41 41 43 44 42 42 42 42 42 43 48 50 50 49 47 46 44 44 48 50 45 42 37
58 57 53 69 64 65 26 18 13 8 6 5 5 5 6 8 12 14 16 24 32 38 50 52 49 49 50 49 47 49 53 54 53 53 54 56 55 57 56 57 55 49 50 49
61 59 55 64 69 69 46 26 18 9 7 6 5 5 6 7 10 14 15 18 35 44 48 50 50 54 60 60 59 59 58 59 60 60 62 67 68 67 66 62 60 68 70 75
70 61 49 62 68 69 67 47 46 17 11 7 6 6 7 7 9 13 18 26 31 35 34 38 49 63 71 71 73 72 69 73 77 78 75 72 75 75 75 74 80 87 84 79
68 65 58 55 64 70 78 79 47 36 16 9 7 7 8 8 9 11 13 17 22 26 40 51 64 76 79 78 74 75 80 83 82 82 84 83 83 82 78 81 82 82 75 65
71 65 60 52 67 72 63 94 64 68 20 12 7 7 8 9 9 10 12 16 20 27 31 41 48 60 74 76 77 82 82 81 82 84 84 84 85 86 86 85 84 80 75 71
70 67 61 58 74 69 76 85 82 74 29 14 8 6 8 10 10 10 10 13 17 20 23 29 34 43 56 64 68 75 81 82 80 82 82 82 84 84 82 81 78 72 65 62
69 65 64 70 70 72 87 91 89 58 35 17 9 7 7 9 10 11 12 13 18 22 25 27 30 35 42 53 60 65 71 77 79 79 78 80 81 82 79 74 66 61 58 50
68 66 65 71 71 79 80 98 82 63 36 21 10 7 7 8 10 11 12 12 15 19 22 26 30 35 41 52 56 60 65 70 72 70 66 64 64 62 60 60 58 52 49 50
69 61 65 68 75 90 78 97 91 66 39 23 10 8 7 7 8 10 12 11 12 13 17 23 29 35 38 42 45 46 47 49 50 52 53 55 54 53 52 52 51 50 49 46
78 71 74 67 68 91 80 98 86 57 37 19 10 7 7 7 7 8 9 11 11 11 12 14 18 23 28 33 39 41 42 47 51 52 51 50 50 51 54 54 53 53 52 51
71 70 66 66 67 75 92 90 80 63 32 15 8 7 6 6 6 7 8 8 10 11 11 12 14 16 19 23 28 33 39 41 41 43 46 49 49 48 48 49 51 51 48 45
62 79 68 64 70 78 99 90 79 49 24 12 7 7 6 6 6 6 7 7 8 10 10 11 12 14 15 18 20 22 26 27 28 31 36 39 40 39 39 40 40 41 40 38

GFSNGP_250_rhum_102.txt.gz
RH
17 14 14 13 8 5 3 4 5 5 8 11 15 18 14 17 16 14 16 16 16 14 18 24 26 27 24 25 28 31 34 39 42 45 47 48 51 57 50 44 41 40 40 39
24 12 15 13 11 9 5 3 5 5 5 5 7 12 18 18 15 15 17 17 18 17 16 15 18 24 27 30 30 29 33 32 33 35 36 34 35 37 38 39 38 36 35 33
33 17 12 10 11 10 9 6 3 4 5 5 5 9 13 18 19 20 19 17 17 20 22 22 19 18 18 22 23 24 27 28 32 33 36 38 35 34 33 36 35 34 32 27
41 30 12 12 10 9 8 8 6 4 4 5 6 7 10 18 23 24 23 21 19 19 20 20 21 18 18 19 19 20 21 23 25 28 31 33 33 34 33 31 28 25 23 22
44 42 21 11 14 12 11 9 8 6 4 4 6 7 8 9 12 23 32 31 28 23 19 18 16 15 16 15 16 19 18 18 19 20 21 23 24 24 23 22 22 22 22 21
44 54 32 17 13 14 11 10 7 8 5 4 4 6 7 8 9 10 18 26 29 29 28 25 21 19 19 19 19 20 20 18 17 17 18 19 19 19 20 21 21 22 22 22
45 52 41 26 19 13 12 11 8 7 7 4 4 4 5 7 9 10 11 18 29 37 40 39 36 34 31 30 29 27 27 25 22 20 20 20 21 21 21 22 25 26 28 27
53 50 49 32 27 19 13 9 9 6 6 6 4 4 5 6 8 9 11 16 35 53 55 54 48 42 38 38 37 36 35 34 31 27 26 24 23 24 25 26 28 29 28 26
56 52 52 46 50 24 19 14 11 9 6 5 4 4 5 6 8 9 10 12 20 39 57 61 62 53 43 35 38 42 40 37 36 37 37 37 36 36 35 35 34 31 31 29
48 50 55 53 60 47 30 17 13 10 7 5 4 4 4 6 7 9 10 12 16 22 37 50 62 63 53 43 38 39 41 42 42 42 43 44 45 45 45 42 39 35 33 35
50 52 53 57 65 63 49 32 21 10 7 5 5 4 4 5 6 9 11 12 14 19 27 41 52 63 64 64 62 61 61 59 54 55 58 57 54 51 47 45 45 46 48 46
43 53 53 55 65 70 69 50 31 18 10 6 5 4 5 5 6 8 12 13 14 16 22 37 45 57 65 67 64 64 64 59 53 50 50 49 48 48 48 50 51 46 39 34
44 52 49 54 66 64 73 55 44 23 12 7 5 5 4 5 6 8 11 13 14 14 21 28 47 57 61 65 65 60 58 58 58 51 47 44 44 42 40 42 39 37 39 45
45 44 54 65 58 67 65 52 39 21 16 9 7 6 5 5 6 7 9 12 13 14 20 29 40 54 59 62 63 59 53 47 42 40 40 42 44 44 42 41 44 50 62 61
49 44 61 55 51 64 60 58 48 30 17 12 9 6 6 5 5 6 8 10 11 14 18 32 45 54 59 64 67 65 57 48 45 46 50 52 53 54 58 62 64 63 62 55
47 60 51 56 51 61 61 59 50 38 23 13 14 11 6 6 6 6 7 8 13 15 20 29 41 53 64 69 66 63 58 55 54 55 56 59 61 63 65 64 64 63 58 55
52 64 50 64 58 56 60 62 63 58 41 24 18 17 11 7 7 7 7 8 12 17 18 30 46 58 60 63 64 64 65 64 68 67 64 62 64 67 66 64 62 62 58 60
54 68 66 66 61 53 60 70 76 58 74 58 40 24 19 11 7 8 8 8 10 14 22 32 42 49 55 58 66 68 68 72 78 77 74 73 71 71 75 75 74 74 70 69
63 71 66 84 61 57 59 68 78 78 80 80 57 47 32 18 10 9 9 9 9 11 17 28 40 52 61 67 70 75 81 86 84 80 80 83 84 80 80 80 80 81 82 80
54 60 65 65 59 51 59 75 75 80 81 83 64 56 43 24 12 9 9 10 10 11 14 20 28 39 48 52 63 73 80 82 83 83 84 85 85 83 80 75 76 80 79 78
54 58 64 59 60 58 61 65 73 75 83 78 67 52 36 27 14 9 9 9 10 11 12 14 18 21 27 35 42 44 55 62 66 70 74 79 85 85 81 75 72 73 74 74
49 62 72 55 56 56 61 62 70 77 94 84 72 55 32 24 17 8 8 9 9 10 11 12 14 18 22 25 28 33 42 56 68 75 79 82 82 83 83 81 77 76 77 75
57 62 83 75 56 56 55 62 68 83 86 93 92 63 28 22 17 9 8 8 8 9 9 11 12 13 15 19 23 27 34 45 57 64 70 74 79 81 80 82 83 83 81 76
71 80 82 77 59 54 53 58 72 92 88 89 91 61 27 17 13 9 7 7 7 8 8 9 11 12 13 15 17 19 22 28 35 41 50 60 64 66 71 76 76 72 68 65
77 82 67 66 62 57 54 63 76 78 79 76 78 63 25 13 8 7 6 6 7 7 7 8 8 10 11 13 15 17 18 21 27 35 41 44 46 47 50 52 52 51 49 47
93 77 76 57 54 51 57 58 69 77 81 78 68 43 21 10 7 6 6 6 6 6 7 7 8 8 9 10 12 14 16 19 22 25 28 31 35 38 44 49 52 52 52 51
82 66 58 57 52 46 60 58 75 83 90 72 64 36 15 8 6 6 6 6 6 6 6 6 7 8 8 10 11 12 14 16 16 17 20 24 26 28 31 34 34 36 38 37

GFSNGP_250_rhum_108.txt.gz
RH
25 19 16 16 14 11 9 5 5 6 4 5 6 6 7 11 8 9 26 40 66 94 100 99 88 86 100 100 100 100 100 100 100 100 100 100 100 100 100 100 100 100 100 100
32 26 16 13 12 13 8 7 6 4 6 5 5 6 8 8 10 10 8 13 31 48 67 94 100 98 100 84 88 90 91 93 100 100 100 100 100 100 100 100 100 100 100 100
34 29 18 11 12 12 14 11 9 6 4 5 6 4 5 6 9 12 15 9 10 23 35 47 82 96 100 100 100 100 100 100 100 100 100 100 100 100 100 100 100 100 100 100
34 34 29 19 13 14 12 10 9 8 6 4 4 6 4 4 6 8 11 16 19 13 12 14 28 44 60 84 100 100 100 100 100 100 100 100 100 100 100 100 100 100 100 100
36 37 36 34 22 18 14 14 12 8 6 5 4 4 6 4 4 6 9 12 16 21 25 23 22 23 23 34 51 69 87 96 100 100 100 100 100 100 100 100 100 100 100 100
37 41 42 39 31 24 16 12 14 9 6 6 5 4 4 5 4 4 6 8 11 16 23 28 29 27 25 27 24 27 32 42 60 74 90 96 100 100 100 100 94 97 94 83
40 42 42 44 43 36 27 22 17 11 8 8 6 6 4 4 5 5 4 6 8 13 19 22 29 34 35 31 28 29 29 34 29 28 37 46 54 61 65 66 62 56 52 45
40 41 39 44 45 52 37 26 21 20 17 12 8 6 5 4 4 4 4 4 5 8 9 16 23 30 35 40 43 41 42 36 27 24 24 21 23 22 21 22 24 26 22 21
42 43 42 38 48 52 39 36 32 27 24 23 15 9 5 5 4 3 4 4 4 5 6 8 11 16 26 36 43 48 51 50 45 38 32 31 31 28 25 23 22 23 21 21
44 43 43 38 45 46 49 50 40 38 31 25 25 20 13 7 4 4 4 4 5 5 5 7 9 10 12 15 23 33 41 48 51 52 51 47 42 38 34 32 30 26 26 28
48 45 46 43 44 49 50 47 48 43 36 29 23 22 16 14 7 4 4 4 5 5 6 7 7 9 11 14 17 20 31 46 55 60 60 58 57 54 50 47 44 43 42 43
50 46 46 44 46 45 48 43 47 51 52 32 32 27 21 23 14 12 6 5 5 5 6 7 8 10 12 13 16 20 27 35 41 48 55 61 66 69 70 69 69 66 63 56
53 48 48 44 45 43 45 48 47 56 59 55 46 32 26 23 22 14 13 11 6 6 6 7 7 8 10 12 15 17 24 31 38 45 54 67 80 89 93 94 95 94 87 75
56 50 46 45 47 43 42 41 49 58 56 66 55 36 30 27 21 23 20 14 13 7 7 8 8 9 10 12 14 17 20 24 30 39 52 66 81 89 92 95 96 95 93 91
56 51 50 46 49 43 48 51 49 51 65 69 63 57 39 30 27 26 25 21 15 13 10 8 9 10 12 13 15 18 20 21 25 33 50 68 75 83 87 89 92 96 98 98
57 53 51 51 46 48 50 53 50 55 65 66 74 74 62 43 41 36 30 26 21 14 12 10 8 9 12 13 15 18 21 24 27 32 44 52 70 77 84 95 97 96 96 98
56 53 50 52 48 45 47 57 53 51 76 74 81 70 59 59 52 37 34 32 28 21 12 12 10 9 9 12 14 15 18 22 31 38 50 60 66 83 89 92 95 97 97 96
61 57 56 52 48 43 45 56 71 56 79 75 86 88 88 73 67 48 52 40 31 29 18 11 9 9 9 9 11 14 17 19 33 45 56 65 77 83 86 91 97 98 99 100
62 63 60 57 51 46 46 59 68 66 66 81 82 93 94 91 75 66 58 55 36 24 18 13 9 8 8 8 9 10 14 17 23 36 45 55 72 80 85 90 95 99 100 99
65 64 64 57 50 49 49 57 68 64 71 82 85 94 99 93 86 78 56 62 42 27 18 13 9 7 7 8 8 9 10 14 18 24 40 50 61 71 82 89 93 95 98 98
68 64 60 54 52 52 53 56 73 72 78 80 91 78 97 89 90 90 71 51 41 26 15 11 9 8 7 6 7 8 9 10 14 19 26 43 60 63 74 83 85 86 88 91
69 65 63 57 57 60 57 58 76 72 73 80 84 84 94 95 91 64 59 43 33 24 12 7 7 7 6 6 6 7 8 9 10 14 17 21 26 38 55 65 76 84 85 86
64 60 60 60 57 64 58 60 74 65 78 86 83 98 93 86 92 60 46 32 24 18 8 6 5 6 6 6 6 6 7 8 9 10 13 18 23 29 38 46 53 64 78 83
66 66 57 58 60 62 58 60 72 79 82 89 100 100 97 84 77 56 42 29 18 12 6 5 5 5 5 6 6 6 6 7 8 8 10 13 17 22 24 25 31 41 49 55
58 57 59 58 63 56 58 60 67 78 76 95 100 92 94 91 71 51 34 22 13 7 4 4 4 4 5 5 5 6 6 6 7 8 8 10 13 15 18 22 25 29 36 42
58 58 62 60 64 55 54 65 70 81 79 91 96 90 90 84 50 38 22 13 7 4 4 4 4 4 4 5 5 5 6 6 6 7 8 9 11 14 16 18 19 21 24 28
65 67 63 70 69 54 56 62 69 81 84 85 91 93 76 69 45 31 16 8 5 4 4 4 4 5 6 6 6 6 6 6 6 7 8 9 10 12 14 16 16 16 19 22

GFSNGP_250_rhum_111.txt.gz
RH
21 20 12 12 12 12 11 9 5 3 4 5 4 5 7 18 19 29 86 93 77 100 100 100 100 100 100 100 100 100 91 100 100 100 100 100 100 100 100 100 100 100 100 100
29 26 18 12 10 11 12 10 9 6 4 3 4 5 5 6 19 26 40 88 98 100 100 100 100 100 100 100 100 100 100 100 100 100 100 100 100 100 100 100 100 100 91 100
35 29 23 16 12 12 14 13 13 12 10 4 4 4 5 5 7 11 20 39 92 100 100 100 100 100 100 100 100 100 100 100 100 100 100 100 100 100 100 100 100 100 96 77
35 33 30 24 19 14 16 16 15 14 13 9 7 4 4 4 5 6 11 22 47 79 95 100 100 100 100 100 100 100 100 100 100 100 100 100 100 100 100 99 98 100 100 100
36 36 34 32 22 19 22 17 19 16 12 11 9 7 5 4 4 5 5 8 20 31 78 86 100 90 100 100 100 100 100 100 100 100 100 100 100 100 100 100 100 100 100 100
36 35 39 35 30 32 22 17 15 16 15 9 7 6 6 5 4 4 5 4 8 12 25 70 89 89 99 100 100 100 100 100 100 100 100 100 100 100 100 100 100 100 100 100
39 37 42 40 39 37 36 24 20 18 15 14 10 10 8 5 5 4 3 4 4 5 9 18 28 39 81 100 100 100 100 100 100 100 100 100 100 100 100 100 100 100 100 100
42 40 41 44 41 42 40 34 28 20 18 18 19 14 10 7 6 5 4 3 4 5 5 6 9 16 31 44 51 71 90 100 100 100 100 100 100 100 100 100 100 100 100 100
42 44 43 42 45 42 44 39 39 31 25 25 22 19 21 15 8 6 5 4 3 4 5 5 5 7 10 16 22 27 40 51 56 70 75 70 67 81 84 90 93 86 86 90
48 46 44 40 43 42 53 51 41 34 29 27 24 25 23 23 23 13 9 6 4 4 3 4 5 5 6 8 10 13 19 23 27 31 34 39 45 52 53 63 71 76 86 92
50 49 45 42 42 46 47 46 46 42 36 33 29 28 24 22 24 26 23 14 9 6 4 4 4 4 5 5 6 7 9 12 18 24 27 30 33 36 36 34 32 31 32 33
52 50 47 43 42 47 46 48 45 42 43 46 44 34 29 24 25 21 20 26 22 10 9 6 5 5 5 5 6 7 8 10 12 16 24 32 38 45 51 56 59 58 58 60
54 51 48 45 46 48 45 45 47 48 45 55 62 45 46 30 29 28 30 25 26 25 17 10 10 6 6 6 7 7 8 9 11 14 18 18 22 27 30 36 47 65 75 81
55 50 49 48 51 51 45 48 46 49 52 48 56 50 51 51 40 30 31 32 28 25 23 22 14 11 9 7 8 8 9 10 10 12 14 17 20 27 37 45 56 64 67 72
60 51 51 52 56 52 47 46 48 50 50 51 70 54 51 51 59 48 36 35 29 28 26 23 19 15 11 10 9 8 9 11 14 14 16 21 24 27 35 47 53 62 72 80
65 55 53 55 58 55 52 50 50 52 51 50 69 74 74 69 62 67 49 44 36 37 30 27 22 15 13 11 10 10 8 10 12 15 18 20 22 26 26 35 51 68 69 82
64 58 53 53 54 53 50 50 51 54 54 60 62 84 81 69 72 70 63 61 52 41 36 34 28 21 12 10 9 10 10 9 10 13 16 20 20 23 26 33 46 62 75 79
68 63 58 54 51 52 53 51 50 52 55 64 73 71 87 82 91 89 81 83 65 47 38 33 30 25 17 10 9 8 9 9 10 10 11 14 18 22 26 32 43 55 64 76
75 72 66 57 54 55 54 49 50 54 53 55 70 80 90 92 84 94 88 75 68 48 38 33 23 20 17 11 8 7 7 8 9 9 10 12 16 19 26 34 49 59 70 79
88 78 71 58 55 59 53 49 53 50 53 55 72 74 86 97 97 94 93 86 73 47 38 32 21 15 13 9 6 6 6 7 8 9 9 10 12 17 26 33 46 57 64 72
90 83 73 63 60 53 51 50 52 54 56 54 69 85 82 96 91 87 89 81 69 49 34 30 23 10 9 7 6 6 5 6 6 7 8 9 10 13 20 33 41 54 64 71
92 81 71 61 54 53 53 56 56 56 57 54 68 80 85 91 97 95 90 73 59 46 31 24 16 7 5 5 5 5 5 5 5 6 6 7 9 10 12 19 29 43 54 62
91 81 69 61 54 57 62 61 58 58 61 55 59 76 92 95 90 78 83 69 50 36 30 22 13 6 4 4 4 5 5 4 5 5 6 6 7 9 10 13 18 26 37 45
79 77 64 57 55 63 72 72 66 64 61 60 62 74 71 88 90 80 85 69 52 33 26 17 9 5 4 4 4 4 4 4 4 5 5 6 7 8 9 10 14 20 27 36
90 89 66 55 61 65 76 81 81 75 63 58 56 66 75 94 84 83 73 63 44 24 19 11 6 4 4 4 4 5 6 6 5 5 5 6 7 8 9 10 12 15 18 22
98 79 67 62 63 65 70 78 81 75 67 57 60 68 81 86 86 76 66 40 26 16 13 6 4 4 4 4 5 6 6 7 7 7 7 7 7 8 8 9 10 12 15 20
94 84 81 71 66 63 78 79 88 82 72 56 60 69 82 87 76 60 53 33 17 13 8 5 4 4 5 6 6 7 7 7 8 8 8 8 8 8 7 8 9 11 13 15

GFSNGP_250_rhum_114.txt.gz
RH
14 13 11 11 13 12 11 7 4 4 3 4 6 4 5 12 18 13 14 22 39 50 60 95 100 100 100 100 100 100 100 100 100 96 100 100 100 100 100 100 100 100 100 100
22 19 17 11 10 11 13 14 12 5 3 4 4 5 6 5 6 14 15 13 16 49 48 74 100 100 100 100 100 100 100 100 100 100 100 97 100 100 100 100 100 100 100 100
32 24 23 16 14 12 14 15 17 17 10 6 4 5 5 7 6 6 11 20 15 15 43 70 100 100 100 100 100 100 100 100 100 100 100 100 100 100 100 100 100 100 100 100
36 31 28 23 19 15 13 16 17 16 15 14 10 5 5 5 7 8 7 8 16 25 16 26 48 97 100 100 100 100 100 100 100 100 100 100 100 100 100 100 98 100 100 100
40 36 32 28 23 23 16 18 19 18 16 15 13 11 7 5 5 6 8 9 8 12 21 22 25 34 76 100 100 100 100 100 100 100 100 100 100 100 100 100 100 100 100 100
41 39 33 32 29 25 23 22 22 19 15 15 14 13 12 8 6 5 6 6 9 14 13 25 36 25 22 28 68 99 100 100 100 100 100 100 100 100 100 100 100 100 100 100
44 42 37 35 34 29 27 29 28 22 20 16 14 14 14 12 9 9 6 5 5 7 9 17 23 36 36 29 36 66 100 100 100 100 100 100 100 100 100 100 100 100 100 100
47 43 41 38 35 33 30 32 34 32 23 19 21 20 17 20 17 11 10 7 5 5 5 8 11 23 62 69 61 56 54 66 94 100 100 100 100 100 100 100 100 100 100 100
51 46 43 40 38 36 33 36 33 35 32 28 25 21 21 21 18 22 14 10 9 7 5 4 6 9 9 13 34 69 84 76 66 81 93 88 100 100 100 100 100 100 100 100
54 52 47 44 42 40 39 39 36 38 35 31 30 28 26 24 25 24 26 22 13 11 10 8 6 5 6 9 10 19 31 80 96 97 100 100 100 100 100 100 100 100 100 100
60 58 53 48 44 42 44 41 44 40 38 36 33 41 43 40 34 28 28 28 29 26 14 12 10 9 7 5 6 8 9 14 31 42 45 84 100 100 100 100 100 97 100 100
72 64 60 51 48 45 45 44 41 46 45 40 38 45 53 43 35 24 30 29 30 26 26 26 22 17 12 8 7 5 5 7 8 10 14 19 23 29 57 90 94 92 93 87
83 72 66 60 52 48 46 46 43 49 46 46 44 41 56 64 52 42 33 31 26 22 25 25 25 25 21 15 10 8 7 6 6 6 7 8 9 13 18 22 25 30 34 32
91 80 71 66 58 52 50 47 46 44 48 47 50 44 59 57 68 54 57 46 35 30 25 28 25 25 24 21 19 12 9 8 8 6 7 8 8 8 9 11 13 16 20 23
98 88 74 68 64 58 56 50 49 44 43 46 50 54 60 62 76 60 50 54 50 43 41 35 34 28 25 22 18 18 12 8 8 7 7 6 8 9 9 10 10 13 16 20
99 93 77 74 69 64 62 53 50 44 46 47 51 50 56 62 71 64 61 57 60 53 48 43 33 30 30 24 20 14 14 14 8 7 7 7 8 8 9 10 13 14 18 23
99 92 79 80 76 70 66 62 53 50 47 47 54 54 52 54 64 59 74 65 64 60 55 47 48 41 36 31 23 17 10 10 10 8 7 7 7 8 8 10 13 15 16 18
100 92 80 82 78 70 72 66 57 52 45 51 57 62 60 59 67 65 74 80 62 68 52 50 45 35 35 32 23 16 10 7 7 7 7 7 7 7 8 9 11 16 20 21
100 95 84 83 76 72 75 69 64 54 46 47 52 61 66 64 62 61 62 83 67 63 54 49 46 36 36 30 19 12 8 5 5 6 6 6 6 6 7 8 9 10 14 19
100 100 91 85 85 81 83 77 67 52 46 45 52 62 68 76 69 68 62 68 67 61 63 50 39 36 31 19 13 8 5 4 4 5 5 5 6 6 6 6 7 9 10 15
100 98 89 95 98 96 87 83 65 51 49 50 52 56 68 84 81 76 73 64 75 61 52 42 32 24 21 13 9 5 4 4 4 4 5 5 5 5 6 6 7 8 10 13
98 94 95 99 100 93 83 83 76 56 53 50 50 54 67 77 80 79 72 76 74 73 58 49 35 26 19 11 6 4 4 4 4 4 4 4 4 5 5 6 7 7 8 11
98 95 100 100 100 91 79 87 78 64 59 52 50 56 64 75 72 86 73 76 66 74 53 45 29 24 18 8 5 4 4 4 4 5 5 5 5 5 5 6 6 7 8 10
99 100 100 100 100 88 89 94 82 72 62 56 54 58 62 72 74 75 78 75 69 70 50 38 25 19 13 7 4 4 4 4 5 6 6 6 6 6 5 6 6 7 8 9
100 100 100 100 100 96 100 96 90 70 61 62 59 62 64 70 70 72 77 73 72 61 42 36 21 16 10 6 4 4 5 5 6 7 6 7 7 7 7 7 7 7 8 9
100 100 100 100 94 98 96 91 79 70 65 62 63 66 65 67 64 72 80 72 72 56 46 28 17 13 8 4 4 4 6 6 6 7 7 8 8 8 9 8 8 8 8 8
100 100 99 100 100 100 98 86 72 63 58 60 63 63 63 66 64 75 72 77 67 52 40 21 15 9 6 4 4 5 6 6 7 7 7 8 9 9 9 9 9 9 8 8

GFSNGP_250_rhum_117.txt.gz
RH
24 17 15 14 14 14 12 6 6 7 6 6 5 5 5 5 10 16 14 10 15 26 24 84 100 100 88 100 100 100 100 100 100 100 100 100 100 100 100 100 100 100 100 100
28 24 21 18 16 14 15 13 11 8 7 8 6 5 5 5 6 6 12 14 9 10 17 30 69 66 94 100 100 100 100 100 100 100 100 100 100 100 100 100 100 100 100 100
34 30 27 22 19 16 14 15 15 17 15 13 10 9 7 6 5 6 7 12 16 10 15 19 32 63 100 100 100 100 100 100 100 100 100 100 100 100 100 100 100 100 100 100
40 35 32 29 26 21 18 15 15 16 16 16 16 14 10 9 6 5 6 7 12 16 12 17 24 68 100 100 100 100 100 100 100 100 100 100 100 100 100 100 100 100 100 100
46 41 37 34 32 29 25 20 18 18 18 15 14 15 14 14 10 8 6 6 6 11 22 18 15 19 35 69 100 100 100 100 100 100 100 100 100 100 100 100 100 100 100 100
51 47 44 40 38 36 32 26 21 19 18 18 17 16 16 14 11 12 12 7 6 6 7 12 32 26 18 23 30 49 88 100 100 100 100 100 100 100 100 100 100 100 100 100
55 53 50 46 43 42 39 34 27 24 21 23 20 15 18 18 17 16 16 15 12 7 5 6 8 17 46 40 30 28 41 78 89 100 100 100 100 100 100 100 100 100 100 100
57 58 58 53 49 46 45 42 37 32 25 26 25 21 18 14 19 23 21 16 20 18 12 8 6 6 9 21 54 78 71 69 85 100 100 100 100 100 100 100 100 100 100 100
70 64 63 63 57 53 48 46 41 37 30 33 32 30 26 23 19 23 24 26 24 21 20 15 11 8 6 6 8 13 31 73 75 99 100 100 100 100 100 100 100 100 100 100
83 77 76 71 66 62 54 49 47 43 37 37 40 40 36 33 27 31 23 25 24 28 25 21 22 19 14 10 6 5 7 10 14 31 58 70 85 97 100 100 100 100 100 100
90 88 84 81 75 70 64 55 55 49 43 42 44 48 50 44 42 39 33 27 26 27 32 36 35 28 22 17 16 12 9 6 5 7 11 20 39 62 73 97 100 100 100 100
98 92 91 88 82 78 71 61 58 57 51 47 46 48 52 55 47 45 39 38 30 28 30 27 27 27 28 30 28 19 15 13 11 8 6 6 7 9 10 17 35 65 87 97
98 90 96 97 91 89 78 68 62 64 60 53 48 47 52 51 51 57 48 43 46 39 32 30 30 36 31 28 24 27 24 17 11 10 8 8 7 6 6 8 10 10 12 18
99 92 95 97 96 99 88 72 68 71 67 59 54 50 46 52 48 48 56 58 52 45 42 40 42 42 33 33 25 25 24 21 17 12 9 10 8 7 8 6 6 8 9 9
94 95 95 94 100 100 97 79 72 80 78 70 65 57 50 48 54 54 55 58 60 65 51 46 44 45 40 40 34 30 23 18 16 15 12 7 9 8 7 7 8 8 8 8
94 90 91 93 96 98 97 84 77 82 82 81 71 61 49 51 53 56 56 62 57 72 60 55 58 47 48 48 41 28 27 21 13 12 12 10 7 6 7 6 7 8 9 9
94 88 89 99 100 95 99 86 85 87 86 82 82 70 54 54 54 53 57 56 59 71 68 61 74 55 54 54 52 38 31 25 16 10 8 7 7 6 6 6 6 7 8 9
92 87 85 100 98 100 95 92 100 99 95 91 84 76 67 57 56 56 56 59 63 65 72 67 76 64 60 58 56 40 33 22 15 8 6 5 5 5 5 6 6 6 7 8
96 89 94 98 94 99 95 100 100 100 99 92 87 79 72 65 62 59 59 62 70 66 74 73 76 66 59 54 50 43 29 18 12 7 5 4 4 5 5 5 6 6 6 7
90 87 100 100 100 100 100 100 100 100 96 91 86 82 78 78 67 61 60 63 68 67 73 68 76 70 59 52 47 35 29 14 8 5 4 4 4 4 5 5 5 6 6 6
88 84 98 100 100 100 100 98 100 100 96 98 92 89 85 79 69 63 60 59 63 61 71 71 81 75 60 55 38 29 25 12 7 4 4 4 4 5 5 5 5 5 6 6
90 91 96 94 92 94 100 100 100 100 99 97 93 93 82 72 65 62 61 59 57 61 71 74 85 66 59 45 33 29 18 9 6 4 4 5 5 6 6 6 6 6 5 6
95 92 100 99 94 90 94 98 100 100 100 94 87 82 74 65 66 65 59 59 54 59 70 70 80 64 56 36 29 21 14 8 5 4 4 6 6 6 7 7 7 7 7 6
89 98 100 100 100 100 100 100 100 99 94 87 83 80 73 72 67 65 59 58 54 61 63 78 69 64 52 29 24 15 10 6 5 4 5 6 6 7 7 7 7 8 8 8
95 97 93 100 100 100 100 100 100 94 93 89 83 86 82 75 70 65 61 57 54 64 66 78 69 67 40 26 19 12 7 6 4 4 5 6 6 7 7 7 8 8 8 8
96 80 88 96 100 100 100 100 100 98 88 84 79 81 86 75 70 66 60 52 57 63 74 74 63 58 29 23 13 8 6 4 4 4 6 7 7 7 7 8 8 8 9 9
83 76 82 98 100 100 100 100 100 94 89 86 81 86 78 71 69 66 54 48 61 61 75 63 60 37 26 19 10 6 4 4 4 5 6 7 8 8 8 8 8 8 8 9

GFSNGP_250_rhum_120.txt.gz
RH
28 27 23 20 17 17 14 13 11 8 6 8 7 7 10 12 17 16 27 32 24 45 36 20 18 29 61 87 100 100 100 100 100 100 100 100 100 100 100 100 100 100 100 100
35 34 30 28 22 18 18 20 16 12 11 10 8 10 9 8 11 18 15 19 27 42 50 42 32 32 40 79 96 55 100 100 100 100 100 100 100 100 100 100 100 100 100 100
43 42 40 36 31 28 24 21 20 18 18 15 13 12 11 9 8 8 11 17 20 24 34 57 45 48 48 41 92 84 73 86 100 100 100 100 100 100 100 100 100 100 100 100
53 50 48 45 41 37 32 27 21 21 23 19 18 16 14 11 9 9 8 9 14 19 54 65 52 58 68 67 82 99 100 99 74 55 67 100 100 100 100 100 100 100 100 100
57 58 56 53 52 47 43 38 31 24 22 26 25 21 20 18 17 15 13 13 10 9 10 18 38 75 98 92 99 97 100 100 100 100 89 100 100 100 100 100 100 100 100 100
59 60 63 62 58 57 52 46 42 34 27 22 23 28 30 19 19 19 19 16 15 13 12 9 9 14 26 47 97 100 100 100 100 100 100 100 100 100 100 100 100 100 100 100
56 64 67 70 66 64 62 54 49 45 39 34 24 25 31 28 26 22 18 23 23 20 19 17 14 10 9 13 34 67 69 96 100 100 100 100 100 100 100 100 100 100 100 100
67 64 69 75 76 72 69 65 57 53 48 43 37 26 30 30 31 32 30 23 22 24 26 25 20 20 18 12 8 11 29 73 69 79 100 99 96 100 100 100 100 100 100 100
91 84 79 78 78 82 78 70 65 59 58 53 48 42 37 34 36 36 36 33 31 26 26 24 25 30 28 23 21 18 10 9 22 52 68 82 82 100 100 100 100 100 100 100
100 93 91 86 83 86 85 82 69 66 65 62 57 55 50 46 41 39 43 40 36 34 30 27 24 23 26 31 34 30 30 27 20 11 9 17 34 60 74 98 100 100 100 100
100 100 95 90 88 90 94 93 83 73 71 72 69 60 60 52 47 49 44 46 46 43 39 31 30 27 25 21 22 24 25 26 28 27 19 15 11 7 11 30 72 98 100 100
96 100 97 95 91 91 98 100 96 79 78 85 80 77 68 65 56 55 53 54 49 48 45 43 38 31 29 26 25 23 19 19 20 20 21 20 16 13 12 10 7 9 19 29
87 94 100 95 98 87 91 100 98 88 81 85 91 85 77 76 73 67 62 59 55 54 51 50 46 42 37 34 30 25 22 18 17 18 17 17 16 14 12 11 11 12 11 8
94 91 90 98 96 93 82 86 94 88 90 88 93 87 92 85 81 84 76 63 58 59 58 56 55 50 51 46 40 33 31 30 23 23 22 16 14 13 10 11 11 10 10 12
92 96 88 95 95 91 85 84 94 90 90 94 98 93 89 89 86 81 76 64 63 61 57 59 58 56 53 54 49 45 46 37 34 31 30 19 13 12 10 8 7 8 8 8
79 94 93 94 91 90 86 85 91 93 83 97 100 94 93 92 89 89 76 69 66 60 61 62 59 55 51 54 60 53 57 51 44 38 36 25 14 9 9 8 6 5 6 6
81 77 83 94 84 82 78 77 78 89 88 96 96 90 100 100 97 89 82 76 71 61 59 63 61 58 55 58 57 54 58 52 50 40 37 24 14 8 6 6 5 4 5 5
75 83 81 86 85 76 78 78 74 80 97 95 98 95 99 94 90 88 81 72 67 61 60 64 63 62 60 58 61 55 57 56 49 39 35 18 10 7 5 4 4 4 4 4
74 100 84 83 85 79 73 77 82 88 97 98 98 99 99 91 96 88 80 71 66 68 66 67 66 66 59 58 58 52 56 49 45 36 30 14 8 6 5 4 4 4 4 4
72 94 91 94 90 84 68 66 80 88 96 93 88 100 93 95 93 88 81 69 68 70 68 69 70 66 57 54 56 50 53 48 37 26 18 10 6 5 4 4 4 5 5 5
84 86 85 96 100 96 75 65 69 78 85 87 91 98 99 93 89 85 75 71 73 68 70 74 75 70 60 57 52 49 50 39 29 22 13 7 5 4 4 4 5 6 6 6
92 81 86 82 94 99 89 78 65 70 83 87 94 93 92 87 91 86 76 74 69 65 72 73 78 70 61 58 55 47 44 34 26 18 10 6 4 4 4 4 5 6 6 7
93 84 84 81 85 93 99 93 82 83 83 82 96 92 100 99 92 83 71 71 64 63 71 72 78 70 60 61 55 49 39 27 21 12 6 5 4 4 4 5 6 6 6 7
98 86 78 75 73 83 94 98 100 95 93 96 95 91 89 95 92 82 70 63 58 64 69 68 71 71 64 63 53 47 33 24 17 9 5 4 5 5 5 6 7 7 7 7
98 88 87 80 72 71 92 96 98 93 100 100 100 100 98 88 83 75 63 60 59 63 62 65 71 68 61 61 51 42 28 20 12 6 5 5 6 6 6 7 7 7 8 8
92 98 88 83 69 72 90 90 94 94 99 100 100 100 100 91 86 74 64 64 59 61 62 65 71 62 61 57 50 37 26 16 8 4 5 5 5 5 5 6 6 6 7 8
87 96 96 91 80 74 87 90 95 97 100 100 100 100 96 84 80 74 68 66 61 62 62 68 67 58 58 55 44 30 21 12 5 5 5 5 4 4 4 4 5 5 5 6

GFSNGP_250_rhum_126.txt.gz
RH
45 38 41 42 37 31 23 16 12 11 10 9 9 8 7 6 13 28 34 40 44 51 35 49 41 20 24 40 53 60 44 48 52 71 99 100 100 100 100 100 100 100 100 100
40 42 40 43 44 40 35 30 26 18 14 12 11 10 11 10 8 9 32 34 27 45 51 49 44 46 50 30 33 58 56 83 54 67 84 100 100 100 100 100 100 100 100 100
51 43 44 42 47 44 43 38 33 34 29 22 17 14 11 13 15 18 18 31 48 51 51 57 83 67 74 79 72 52 66 54 62 68 58 80 97 100 82 70 82 100 98 100
64 58 44 46 51 49 45 44 40 35 32 34 33 29 29 20 18 15 18 27 74 82 82 82 85 92 92 100 98 97 90 75 74 98 82 93 88 90 98 96 92 75 100 100
57 61 62 50 41 52 56 50 44 41 41 40 33 35 37 37 36 32 25 20 20 27 96 96 90 96 77 100 100 100 100 100 98 100 100 100 100 100 97 96 100 100 100 100
48 56 58 55 51 41 46 54 55 50 45 40 38 37 34 36 38 43 39 36 32 28 24 22 20 20 18 18 24 45 75 84 97 99 97 100 100 100 100 100 100 100 100 100
59 52 58 61 60 58 48 43 52 55 56 50 47 44 38 36 33 31 34 37 38 41 44 39 38 35 28 26 25 25 20 15 15 21 37 49 73 94 100 100 100 100 100 100
75 64 59 63 61 62 61 55 50 54 57 61 59 55 53 45 40 38 34 34 31 32 36 38 37 41 47 50 51 43 40 40 34 29 27 25 20 20 50 81 98 100 97 100
90 78 77 66 66 66 68 66 59 52 57 60 64 64 60 58 57 47 42 42 41 35 30 33 36 36 36 36 39 44 48 51 56 56 52 51 52 51 52 45 33 22 23 36
100 95 95 82 76 67 69 70 65 63 60 62 62 66 68 66 65 63 57 47 45 46 44 39 34 34 34 35 36 36 36 33 42 44 50 53 49 47 52 53 47 41 40 40
100 81 100 92 87 78 76 77 71 66 63 70 68 71 66 72 69 67 64 59 56 50 53 52 47 44 41 40 41 37 42 42 43 44 46 52 53 49 40 40 41 41 33 30
65 82 98 100 88 86 85 76 69 73 68 64 73 75 77 69 71 73 72 68 58 58 60 59 56 55 54 51 46 46 50 50 50 50 51 49 51 50 47 45 43 38 38 33
18 42 99 100 93 93 100 83 73 74 76 68 64 73 81 80 74 70 76 78 74 66 59 63 63 63 59 53 48 44 50 54 51 53 58 55 54 56 59 46 39 38 36 33
12 16 53 64 70 78 98 89 85 74 69 75 70 66 71 82 80 74 75 76 76 76 68 66 64 61 59 55 58 58 51 49 50 56 55 56 56 56 56 49 58 49 36 28
19 13 21 40 60 47 66 81 87 85 79 70 63 64 71 72 75 76 74 75 79 79 80 72 63 61 60 58 60 57 58 60 53 53 55 56 57 59 60 50 53 48 46 40
31 34 18 15 43 50 40 64 77 94 90 85 70 57 58 69 73 71 72 72 72 77 82 75 70 66 65 62 62 62 61 53 53 54 58 58 60 63 64 60 53 46 44 38
16 29 27 29 18 37 52 45 78 90 94 100 91 74 65 62 72 77 67 67 69 80 83 74 73 70 67 71 69 67 65 58 57 57 60 59 62 65 67 58 50 41 41 26
13 18 21 24 17 21 30 37 57 78 83 94 93 90 83 79 70 79 76 71 69 70 77 75 74 74 84 86 81 73 66 61 60 59 60 60 63 65 68 56 44 38 32 18
11 14 21 18 16 16 34 24 28 61 82 76 91 90 88 97 88 89 84 84 80 72 76 79 82 88 94 90 82 72 64 62 59 63 65 64 68 63 67 50 37 33 23 11
10 11 14 15 13 12 15 27 25 48 84 77 80 86 88 88 98 100 97 90 90 88 83 79 83 87 91 89 83 70 71 61 60 64 69 65 68 63 55 42 33 30 15 7
11 10 14 13 12 12 12 15 24 30 66 86 84 89 90 88 93 96 97 100 97 94 94 85 92 97 94 94 82 73 65 61 62 65 68 62 64 60 49 35 25 17 8 5
16 10 11 14 13 12 11 12 16 22 40 75 87 94 96 93 94 100 99 89 96 100 98 93 93 97 95 94 81 72 69 65 61 64 71 66 61 61 42 29 22 10 5 5
17 11 9 12 13 12 11 11 12 18 22 52 90 92 92 95 96 98 100 100 98 100 100 97 96 100 94 89 80 72 73 67 64 65 71 70 61 50 36 22 16 6 4 5
17 12 11 11 12 12 10 9 11 12 19 25 54 78 87 92 92 94 99 100 100 100 100 100 100 99 93 85 78 74 76 68 66 74 70 67 57 38 29 21 11 5 5 5
16 12 12 11 12 12 10 8 8 10 11 18 29 50 76 84 92 90 88 97 100 100 100 100 100 98 89 80 76 77 70 69 66 70 74 62 46 32 25 14 6 6 5 4
14 12 12 12 13 12 10 8 7 8 11 13 16 30 55 77 83 90 84 90 99 100 100 100 100 95 83 81 81 77 74 69 69 74 65 48 32 30 20 7 5 5 4 4
14 15 12 10 10 11 10 8 6 6 8 11 14 19 35 60 78 89 95 94 99 100 96 95 98 89 88 87 80 74 72 70 73 70 55 35 26 22 9 5 4 4 4 4

GFSNGP_250_rhum_129.txt.gz
RH
40 42 41 40 41 31 22 19 16 16 11 8 8 7 6 6 7 12 21 32 38 28 39 40 43 39 27 30 33 33 32 40 72 83 100 100 100 100 100 100 100 100 100 100
37 35 41 37 41 44 40 30 26 23 16 17 12 10 8 7 6 8 14 25 40 32 41 59 68 63 60 25 32 33 30 26 26 35 57 69 100 100 100 100 100 100 100 100
47 43 37 38 39 38 40 44 44 36 31 24 18 18 13 9 8 9 13 23 50 56 51 65 64 68 85 100 88 53 36 42 41 41 36 47 66 97 99 100 100 100 100 100
59 51 45 40 40 38 38 38 40 46 44 40 33 31 25 23 18 14 12 12 20 46 62 83 64 49 61 75 97 100 99 100 100 100 89 56 53 96 100 100 100 100 100 100
64 62 57 50 43 40 40 41 38 37 43 47 44 45 40 37 29 23 23 22 21 20 23 36 62 61 60 71 57 73 68 90 100 100 100 100 100 100 97 84 85 93 100 100
69 74 64 65 56 50 44 43 45 42 40 44 46 41 44 41 41 39 38 32 28 26 26 26 24 25 24 18 15 20 33 34 48 52 55 61 80 98 98 100 100 100 100 100
54 69 79 69 68 61 54 42 44 51 48 47 55 57 50 43 42 40 36 44 40 38 39 42 34 28 27 24 23 23 22 20 15 15 17 24 32 35 47 50 55 77 68 68
28 50 80 89 81 82 70 63 50 44 55 58 51 59 68 66 57 45 45 41 33 38 36 38 41 43 46 46 41 39 38 31 28 26 25 27 29 30 29 29 28 29 29 31
41 22 38 73 82 93 90 86 70 61 51 50 60 59 61 64 68 64 54 50 48 42 42 42 39 36 34 36 38 40 38 40 49 52 52 50 51 52 53 54 55 57 58 61
46 41 26 32 49 76 86 87 94 75 67 62 53 59 72 74 71 74 75 66 57 52 50 48 48 49 48 44 44 44 41 39 41 42 38 38 39 41 44 44 49 54 56 58
38 31 44 42 37 53 60 76 88 87 74 74 57 54 54 64 79 78 71 73 72 69 64 58 57 52 50 48 48 48 47 43 39 37 43 45 46 48 48 51 51 50 55 61
44 35 40 48 27 25 40 61 82 83 87 80 74 66 59 56 58 70 82 78 74 73 76 72 68 65 61 59 57 55 53 49 46 45 43 43 45 47 53 54 54 54 57 63
37 32 38 33 66 51 21 23 60 74 87 86 82 82 69 64 61 61 62 71 76 74 72 77 80 77 75 73 70 62 59 55 52 48 48 50 51 51 54 53 54 58 60 58
47 29 30 19 26 49 52 28 24 41 54 77 91 92 84 79 70 66 66 71 68 67 71 71 74 79 87 86 76 71 68 63 59 52 53 53 50 54 56 60 67 66 63 61
36 23 19 19 16 18 36 46 37 30 26 48 69 94 96 81 83 80 68 64 69 66 61 64 69 64 68 77 77 77 71 65 62 59 57 53 50 51 55 58 62 71 73 71
22 19 16 15 19 16 15 37 48 32 28 29 46 64 81 90 99 96 81 74 68 68 68 62 57 55 57 60 66 69 67 64 65 62 58 55 54 56 58 59 63 67 72 76
23 25 28 21 15 14 14 11 23 40 26 22 23 31 59 86 98 93 88 100 92 84 70 73 73 65 64 60 62 67 70 72 73 69 68 64 61 61 59 58 62 64 72 75
25 24 28 37 19 14 14 13 11 21 36 23 18 16 34 61 79 97 96 100 99 100 95 85 80 83 83 81 79 80 79 79 77 76 73 66 68 65 63 60 61 66 69 76
35 23 25 51 36 19 14 11 12 13 18 27 18 15 13 28 56 72 91 99 100 100 99 98 93 92 90 87 85 82 86 84 83 84 87 74 75 72 62 62 63 68 67 70
41 24 22 40 52 46 22 13 11 12 15 18 17 14 13 13 19 49 76 86 95 98 100 100 100 100 100 100 97 96 94 92 93 95 89 78 77 70 64 65 66 66 67 62
38 35 20 22 40 62 30 16 12 10 10 14 15 13 12 12 20 23 40 70 74 92 94 99 100 100 100 100 100 100 100 100 100 98 87 76 78 72 67 68 67 62 63 53
29 27 21 18 31 37 24 14 12 9 9 10 13 13 14 12 13 19 28 31 55 76 85 88 99 100 100 100 100 100 100 100 100 82 76 82 83 75 62 64 63 61 50 46
24 23 23 19 23 29 19 16 12 9 8 8 11 12 13 12 13 15 19 31 35 48 70 88 95 100 99 100 100 100 100 97 78 78 76 72 69 59 58 62 59 46 45 39
21 21 20 17 20 26 27 24 14 10 10 10 9 11 13 14 14 14 15 25 41 40 51 61 76 88 94 99 100 99 92 79 76 74 70 67 60 57 60 51 45 42 37 33
20 17 19 17 16 23 20 22 17 10 10 10 9 10 9 12 16 13 12 13 21 39 44 57 68 75 91 100 100 99 86 77 73 72 67 60 56 59 51 45 39 37 30 25
16 16 17 17 15 16 18 17 14 10 9 10 13 11 9 9 10 11 11 12 13 17 31 44 58 84 96 97 96 85 77 76 76 70 61 53 56 52 43 38 36 29 23 12
14 14 14 13 13 14 14 14 12 9 8 11 14 13 11 9 8 8 10 11 12 13 19 37 63 83 87 96 85 73 78 85 80 68 52 53 50 41 36 36 28 20 9 5

GFSNGP_250_rhum_132.txt.gz
RH
31 36 36 35 35 33 26 22 22 23 16 14 10 8 6 5 5 9 13 23 32 35 41 54 59 69 34 16 21 23 25 31 31 30 30 23 49 62 88 100 100 100 100 100
36 30 35 38 36 34 32 28 23 22 22 19 18 15 10 8 8 10 15 22 30 43 52 65 72 89 85 80 32 31 32 38 34 42 28 36 46 51 61 81 100 100 100 100
41 42 38 38 40 37 35 33 28 28 26 24 22 18 20 15 11 12 12 10 14 21 52 69 88 88 93 97 92 80 84 69 53 52 63 57 52 44 48 62 100 100 100 100
20 45 44 46 42 46 42 37 36 33 33 37 36 29 23 19 17 15 11 11 17 20 32 43 58 68 74 82 96 99 95 98 82 62 59 64 83 82 80 87 99 100 100 100
30 26 33 47 55 46 54 51 43 40 36 40 48 42 38 39 28 25 23 22 18 14 12 15 24 36 44 56 66 82 95 99 100 99 98 97 99 100 100 100 100 100 100 100
32 28 40 21 44 57 53 52 57 48 46 40 34 49 51 50 41 41 38 33 30 31 30 24 20 16 16 17 26 40 51 59 68 78 87 99 99 100 91 86 95 100 100 100
30 34 33 42 33 38 62 65 55 59 63 50 51 46 44 52 58 51 46 43 41 44 38 33 31 30 27 22 20 14 12 20 38 45 56 58 57 56 61 66 60 54 60 67
45 34 38 32 36 29 30 61 70 65 54 64 59 52 61 61 52 56 60 55 48 45 40 40 42 41 39 36 31 27 24 20 19 19 18 19 20 22 25 33 34 34 34 31
64 57 36 35 31 34 32 24 51 67 69 60 58 61 54 62 78 78 64 64 64 61 54 49 46 44 42 43 45 40 40 36 37 38 37 36 33 33 37 36 36 36 35 35
64 74 53 34 30 24 31 35 22 37 59 66 71 58 56 54 57 66 74 74 67 60 61 60 59 58 57 55 52 52 50 48 47 47 49 48 49 50 49 48 49 47 48 48
59 63 69 42 29 24 20 21 35 34 27 41 66 74 73 58 53 57 61 72 76 72 63 56 56 61 61 60 58 60 60 55 51 48 47 42 40 43 41 42 46 44 44 46
51 46 50 44 30 22 22 18 19 34 34 21 28 52 71 74 75 59 59 59 66 82 86 81 75 66 58 64 66 63 58 59 57 51 49 48 48 46 44 43 45 46 47 51
74 43 53 39 33 28 26 19 14 13 23 37 28 21 40 66 73 77 72 64 61 57 67 80 80 78 72 64 58 56 58 63 66 60 56 54 53 49 44 45 44 41 44 46
66 42 56 39 36 23 22 19 20 15 11 12 31 35 24 27 51 68 73 81 67 68 65 62 67 70 70 70 70 68 66 70 69 70 68 61 55 53 48 42 38 37 42 47
51 62 57 45 44 27 20 15 17 19 18 13 11 18 35 24 23 35 59 71 72 78 71 68 62 64 67 67 66 65 65 64 62 61 57 58 60 59 61 61 60 58 58 59
78 54 68 56 64 45 28 18 18 20 17 17 19 11 13 30 36 28 23 29 56 78 89 78 75 69 69 70 72 71 66 64 64 62 64 66 70 74 75 80 82 73 73 64
66 63 54 71 72 56 51 31 19 19 17 14 14 16 14 13 24 27 22 20 27 49 70 83 85 88 83 76 76 76 75 76 79 79 77 80 83 83 87 94 93 90 77 62
54 63 48 61 68 68 55 51 26 22 26 29 25 14 15 13 12 20 16 14 17 20 31 51 77 91 93 88 85 86 84 82 82 81 85 93 95 92 98 94 96 88 64 65
49 46 52 40 35 47 48 38 41 25 21 33 34 23 15 14 12 11 16 19 14 12 15 30 51 62 87 94 96 97 97 97 95 93 97 98 99 99 100 99 95 66 63 63
77 57 41 42 34 27 39 46 31 30 23 27 34 27 24 14 13 11 10 14 16 14 13 17 26 39 53 72 88 93 98 100 99 99 100 100 100 100 98 85 72 67 66 58
99 99 91 60 36 27 32 40 28 25 22 20 25 25 21 18 12 13 10 10 15 16 12 12 15 21 27 42 56 70 76 82 90 95 95 98 98 95 86 80 76 69 63 59
70 71 93 76 55 45 31 37 31 20 21 18 17 22 23 20 12 11 10 10 11 14 14 12 11 12 17 23 30 43 57 71 78 88 97 97 97 96 91 85 74 54 52 55
70 74 70 70 46 30 29 36 32 19 19 17 16 17 25 22 14 10 8 10 14 17 16 13 12 12 12 13 14 20 31 40 58 72 80 88 92 90 82 77 57 48 46 48
28 37 42 48 32 24 35 38 21 18 19 17 16 16 20 23 14 10 8 9 10 14 18 18 14 12 12 12 14 15 18 25 33 46 59 77 75 73 72 58 53 46 45 40
20 22 26 21 20 21 22 22 21 19 16 14 14 14 16 18 14 11 8 8 12 12 13 17 20 16 11 9 10 10 12 17 24 32 40 49 59 61 54 54 43 40 35 34
18 17 17 21 21 21 27 25 20 18 16 14 13 13 14 15 12 10 9 10 12 14 13 12 13 14 13 9 8 9 10 10 14 22 28 40 50 52 54 40 36 32 31 36
15 14 14 17 19 18 19 18 15 15 13 12 12 12 13 13 11 10 11 12 12 12 13 13 13 11 11 9 7 7 8 10 12 15 25 34 49 48 36 33 30 30 34 33